PORTS® Data Listing: 8575512 Annapolis, MD

CO-OPS RAW PORTS DATA

************************      PRELIMINARY DATA      ************************** 

     THIS RAW DATA HAS NOT BEEN SUBJECT TO THE NATIONAL OCEAN SERVICE'S        
     QUALITY CONTROL OR QUALITY ASSURANCE PROCEDURES AND DOES NOT MEET         
     THE CRITERIA AND STANDARDS OF OFFICIAL NATIONAL OCEAN SERVICE             
     DATA.  IT IS RELEASED FOR LIMITED PUBLIC USE AS PRELIMINARY DATA TO       
     BE USED ONLY WITH APPROPRIATE CAUTION.                                    

************************      PRELIMINARY DATA      ************************** 


       CD   -   Calendar date
       T    -   Time
       TZ   -   Timezone
       PW   -   Predicted water level (feet above MLLW)
       OW   -   Observed water level (feet above MLLW)
       WS   -   Wind speed (knots)
       WD   -   Wind direction (degrees true)
       WG   -   Wind gust (knots)
       AT   -   Air temperature (degrees farenheit)
       WT   -   Water temperature (degrees farenheit)
       AP   -   Air pressure (millibars)
       SA   -   Salinty (PSU - Practical Salinity Units)
       SG   -   Specific gravity
       RH   -   Relative humidity
       AG   -   Air gap (feet)
       VI   -   Visibility (nautical miles)

       ** NOTE **
       A variable that has its data fields filled with "9"s, indicates that
       data was not collected for that sample period.
       **********


STATION NAME: Annapolis (8575512)
****************************************************************************************************
    CD       T    TZ    PW     OW    WS   WD   WG    AT    WT    AP    SA    SG     RH    AG   VI
****************************************************************************************************
2019/12/13 01:12 EST    0.21   0.33 -999 -999 -999  35.8 -99.9 1032.4 -9.9 -9.999 -99.9 -99.99 -9.99
2019/12/13 01:18 EST    0.22   0.35 -999 -999 -999  35.4 -99.9 1032.2 -9.9 -9.999 -99.9 -99.99 -9.99
2019/12/13 01:24 EST    0.24   0.37 -999 -999 -999  35.2 -99.9 1032.1 -9.9 -9.999 -99.9 -99.99 -9.99
2019/12/13 01:30 EST    0.25   0.38 -999 -999 -999  35.1 -99.9 1032.0 -9.9 -9.999 -99.9 -99.99 -9.99
2019/12/13 01:36 EST    0.27   0.40 -999 -999 -999  35.0 -99.9 1032.0 -9.9 -9.999 -99.9 -99.99 -9.99
2019/12/13 01:42 EST    0.28   0.42 -999 -999 -999  34.9 -99.9 1032.0 -9.9 -9.999 -99.9 -99.99 -9.99
2019/12/13 01:48 EST    0.30   0.43 -999 -999 -999  34.8 -99.9 1032.0 -9.9 -9.999 -99.9 -99.99 -9.99
2019/12/13 01:54 EST    0.31   0.46 -999 -999 -999  35.1 -99.9 1032.0 -9.9 -9.999 -99.9 -99.99 -9.99
2019/12/13 02:00 EST    0.33   0.46 -999 -999 -999  35.0 -99.9 1032.0 -9.9 -9.999 -99.9 -99.99 -9.99
2019/12/13 02:06 EST    0.35   0.47 -999 -999 -999  34.9 -99.9 1032.0 -9.9 -9.999 -99.9 -99.99 -9.99
2019/12/13 02:12 EST    0.36   0.49 -999 -999 -999  34.9 -99.9 1032.0 -9.9 -9.999 -99.9 -99.99 -9.99
2019/12/13 02:18 EST    0.38   0.51 -999 -999 -999  35.0 -99.9 1031.9 -9.9 -9.999 -99.9 -99.99 -9.99
2019/12/13 02:24 EST    0.40   0.54 -999 -999 -999  35.0 -99.9 1031.9 -9.9 -9.999 -99.9 -99.99 -9.99
2019/12/13 02:30 EST    0.41   0.55 -999 -999 -999  35.2 -99.9 1031.9 -9.9 -9.999 -99.9 -99.99 -9.99
2019/12/13 02:36 EST    0.43   0.55 -999 -999 -999  35.4 -99.9 1031.8 -9.9 -9.999 -99.9 -99.99 -9.99
2019/12/13 02:42 EST    0.44   0.58 -999 -999 -999  35.1 -99.9 1031.7 -9.9 -9.999 -99.9 -99.99 -9.99
2019/12/13 02:48 EST    0.46   0.60 -999 -999 -999  34.9 -99.9 1031.6 -9.9 -9.999 -99.9 -99.99 -9.99
2019/12/13 02:54 EST    0.47   0.60 -999 -999 -999  34.8 -99.9 1031.5 -9.9 -9.999 -99.9 -99.99 -9.99
2019/12/13 03:00 EST    0.49   0.62 -999 -999 -999  34.8 -99.9 1031.5 -9.9 -9.999 -99.9 -99.99 -9.99
2019/12/13 03:06 EST    0.50   0.64 -999 -999 -999  34.9 -99.9 1031.4 -9.9 -9.999 -99.9 -99.99 -9.99
2019/12/13 03:12 EST    0.52   0.64 -999 -999 -999  34.9 -99.9 1031.3 -9.9 -9.999 -99.9 -99.99 -9.99
2019/12/13 03:18 EST    0.53   0.67 -999 -999 -999  34.9 -99.9 1031.3 -9.9 -9.999 -99.9 -99.99 -9.99
2019/12/13 03:24 EST    0.54   0.68 -999 -999 -999  35.1 -99.9 1031.2 -9.9 -9.999 -99.9 -99.99 -9.99
2019/12/13 03:30 EST    0.55   0.68 -999 -999 -999  35.2 -99.9 1031.1 -9.9 -9.999 -99.9 -99.99 -9.99
2019/12/13 03:36 EST    0.57   0.70 -999 -999 -999  35.3 -99.9 1030.9 -9.9 -9.999 -99.9 -99.99 -9.99
2019/12/13 03:42 EST    0.58   0.72 -999 -999 -999  35.4 -99.9 1030.9 -9.9 -9.999 -99.9 -99.99 -9.99
2019/12/13 03:48 EST    0.59   0.74 -999 -999 -999  35.5 -99.9 1030.7 -9.9 -9.999 -99.9 -99.99 -9.99
2019/12/13 03:54 EST    0.60   0.75 -999 -999 -999  35.6 -99.9 1030.5 -9.9 -9.999 -99.9 -99.99 -9.99
2019/12/13 04:00 EST    0.61   0.75 -999 -999 -999  35.7 -99.9 1030.5 -9.9 -9.999 -99.9 -99.99 -9.99
2019/12/13 04:06 EST    0.62   0.76 -999 -999 -999  35.7 -99.9 1030.3 -9.9 -9.999 -99.9 -99.99 -9.99
2019/12/13 04:12 EST    0.62   0.78 -999 -999 -999  35.8 -99.9 1030.2 -9.9 -9.999 -99.9 -99.99 -9.99
2019/12/13 04:18 EST    0.63   0.79 -999 -999 -999  35.6 -99.9 1030.2 -9.9 -9.999 -99.9 -99.99 -9.99
2019/12/13 04:24 EST    0.64   0.80 -999 -999 -999  35.8 -99.9 1030.1 -9.9 -9.999 -99.9 -99.99 -9.99
2019/12/13 04:30 EST    0.64   0.81 -999 -999 -999  35.5 -99.9 1030.3 -9.9 -9.999 -99.9 -99.99 -9.99
2019/12/13 04:36 EST    0.65   0.82 -999 -999 -999  34.6 -99.9 1030.2 -9.9 -9.999 -99.9 -99.99 -9.99
2019/12/13 04:42 EST    0.65   0.83 -999 -999 -999  34.5 -99.9 1030.3 -9.9 -9.999 -99.9 -99.99 -9.99
2019/12/13 04:48 EST    0.66   0.84 -999 -999 -999  34.8 -99.9 1030.0 -9.9 -9.999 -99.9 -99.99 -9.99
2019/12/13 04:54 EST    0.66   0.84 -999 -999 -999  34.8 -99.9 1029.9 -9.9 -9.999 -99.9 -99.99 -9.99
2019/12/13 05:00 EST    0.66   0.87 -999 -999 -999  34.7 -99.9 1029.8 -9.9 -9.999 -99.9 -99.99 -9.99
2019/12/13 05:06 EST    0.66   0.88 -999 -999 -999  34.8 -99.9 1029.3 -9.9 -9.999 -99.9 -99.99 -9.99
2019/12/13 05:12 EST    0.66   0.87 -999 -999 -999  35.0 -99.9 1029.1 -9.9 -9.999 -99.9 -99.99 -9.99
2019/12/13 05:18 EST    0.66   0.88 -999 -999 -999  35.4 -99.9 1029.3 -9.9 -9.999 -99.9 -99.99 -9.99
2019/12/13 05:24 EST    0.66   0.87 -999 -999 -999  35.3 -99.9 1029.3 -9.9 -9.999 -99.9 -99.99 -9.99
2019/12/13 05:30 EST    0.65   0.88 -999 -999 -999  35.3 -99.9 1029.0 -9.9 -9.999 -99.9 -99.99 -9.99
2019/12/13 05:36 EST    0.65   0.88 -999 -999 -999  35.6 -99.9 1028.8 -9.9 -9.999 -99.9 -99.99 -9.99
2019/12/13 05:42 EST    0.64   0.86 -999 -999 -999  35.8 -99.9 1028.8 -9.9 -9.999 -99.9 -99.99 -9.99
2019/12/13 05:48 EST    0.63   0.88 -999 -999 -999  35.7 -99.9 1028.9 -9.9 -9.999 -99.9 -99.99 -9.99
2019/12/13 05:54 EST    0.62   0.89 -999 -999 -999  35.4 -99.9 1029.1 -9.9 -9.999 -99.9 -99.99 -9.99
2019/12/13 06:00 EST    0.61   0.87 -999 -999 -999  35.7 -99.9 1028.9 -9.9 -9.999 -99.9 -99.99 -9.99
2019/12/13 06:06 EST    0.60   0.87 -999 -999 -999  35.8 -99.9 1028.5 -9.9 -9.999 -99.9 -99.99 -9.99
2019/12/13 06:12 EST    0.59   0.85 -999 -999 -999  36.0 -99.9 1028.3 -9.9 -9.999 -99.9 -99.99 -9.99
2019/12/13 06:18 EST    0.58   0.84 -999 -999 -999  36.3 -99.9 1028.1 -9.9 -9.999 -99.9 -99.99 -9.99
2019/12/13 06:24 EST    0.56   0.89 -999 -999 -999  36.7 -99.9 1027.6 -9.9 -9.999 -99.9 -99.99 -9.99
2019/12/13 06:30 EST    0.55   0.86 -999 -999 -999  36.5 -99.9 1027.4 -9.9 -9.999 -99.9 -99.99 -9.99
2019/12/13 06:36 EST    0.53   0.84 -999 -999 -999  36.6 -99.9 1027.7 -9.9 -9.999 -99.9 -99.99 -9.99
2019/12/13 06:42 EST    0.51   0.87 -999 -999 -999  36.5 -99.9 1027.9 -9.9 -9.999 -99.9 -99.99 -9.99
2019/12/13 06:48 EST    0.49   0.82 -999 -999 -999  36.6 -99.9 1027.9 -9.9 -9.999 -99.9 -99.99 -9.99
2019/12/13 06:54 EST    0.47   0.77 -999 -999 -999  36.7 -99.9 1027.6 -9.9 -9.999 -99.9 -99.99 -9.99
2019/12/13 07:00 EST    0.45   0.75 -999 -999 -999  36.6 -99.9 1027.6 -9.9 -9.999 -99.9 -99.99 -9.99
2019/12/13 07:06 EST    0.43   0.73 -999 -999 -999  36.7 -99.9 1027.9 -9.9 -9.999 -99.9 -99.99 -9.99
2019/12/13 07:12 EST    0.41   0.75 -999 -999 -999  36.6 -99.9 1027.7 -9.9 -9.999 -99.9 -99.99 -9.99
2019/12/13 07:18 EST    0.39   0.74 -999 -999 -999  36.5 -99.9 1027.7 -9.9 -9.999 -99.9 -99.99 -9.99
2019/12/13 07:24 EST    0.37   0.72 -999 -999 -999  36.7 -99.9 1027.5 -9.9 -9.999 -99.9 -99.99 -9.99
2019/12/13 07:30 EST    0.35   0.71 -999 -999 -999  36.7 -99.9 1027.5 -9.9 -9.999 -99.9 -99.99 -9.99
2019/12/13 07:36 EST    0.32   0.67 -999 -999 -999  36.8 -99.9 1027.7 -9.9 -9.999 -99.9 -99.99 -9.99
2019/12/13 07:42 EST    0.30   0.64 -999 -999 -999  36.8 -99.9 1027.8 -9.9 -9.999 -99.9 -99.99 -9.99
2019/12/13 07:48 EST    0.27   0.65 -999 -999 -999  37.0 -99.9 1027.4 -9.9 -9.999 -99.9 -99.99 -9.99
2019/12/13 07:54 EST    0.25   0.61 -999 -999 -999  37.5 -99.9 1027.8 -9.9 -9.999 -99.9 -99.99 -9.99
2019/12/13 08:00 EST    0.23   0.59 -999 -999 -999  37.4 -99.9 1028.0 -9.9 -9.999 -99.9 -99.99 -9.99
2019/12/13 08:06 EST    0.20   0.58 -999 -999 -999  37.1 -99.9 1027.9 -9.9 -9.999 -99.9 -99.99 -9.99
2019/12/13 08:12 EST    0.18   0.57 -999 -999 -999  36.5 -99.9 1027.8 -9.9 -9.999 -99.9 -99.99 -9.99
2019/12/13 08:18 EST    0.16   0.55 -999 -999 -999  36.5 -99.9 1027.8 -9.9 -9.999 -99.9 -99.99 -9.99
2019/12/13 08:24 EST    0.13   0.54 -999 -999 -999  36.6 -99.9 1027.8 -9.9 -9.999 -99.9 -99.99 -9.99
2019/12/13 08:30 EST    0.11   0.52 -999 -999 -999  36.3 -99.9 1027.8 -9.9 -9.999 -99.9 -99.99 -9.99
2019/12/13 08:36 EST    0.09   0.50 -999 -999 -999  36.1 -99.9 1027.7 -9.9 -9.999 -99.9 -99.99 -9.99
2019/12/13 08:42 EST    0.06   0.49 -999 -999 -999  36.1 -99.9 1027.5 -9.9 -9.999 -99.9 -99.99 -9.99
2019/12/13 08:48 EST    0.04   0.44 -999 -999 -999  36.2 -99.9 1027.5 -9.9 -9.999 -99.9 -99.99 -9.99
2019/12/13 08:54 EST    0.02   0.40 -999 -999 -999  36.4 -99.9 1027.4 -9.9 -9.999 -99.9 -99.99 -9.99
2019/12/13 09:00 EST   -0.00   0.39 -999 -999 -999  36.6 -99.9 1027.2 -9.9 -9.999 -99.9 -99.99 -9.99
2019/12/13 09:06 EST   -0.03   0.39 -999 -999 -999  36.4 -99.9 1027.1 -9.9 -9.999 -99.9 -99.99 -9.99
2019/12/13 09:12 EST   -0.05   0.39 -999 -999 -999  36.3 -99.9 1027.0 -9.9 -9.999 -99.9 -99.99 -9.99
2019/12/13 09:18 EST   -0.07   0.37 -999 -999 -999  36.4 -99.9 1026.8 -9.9 -9.999 -99.9 -99.99 -9.99
2019/12/13 09:24 EST   -0.09   0.36 -999 -999 -999  36.5 -99.9 1026.7 -9.9 -9.999 -99.9 -99.99 -9.99
2019/12/13 09:30 EST   -0.11   0.34 -999 -999 -999  36.5 -99.9 1026.9 -9.9 -9.999 -99.9 -99.99 -9.99
2019/12/13 09:36 EST   -0.13   0.33 -999 -999 -999  36.5 -99.9 1027.0 -9.9 -9.999 -99.9 -99.99 -9.99
2019/12/13 09:42 EST   -0.14   0.29 -999 -999 -999  36.5 -99.9 1027.0 -9.9 -9.999 -99.9 -99.99 -9.99
2019/12/13 09:48 EST   -0.16   0.26 -999 -999 -999  36.6 -99.9 1027.0 -9.9 -9.999 -99.9 -99.99 -9.99
2019/12/13 09:54 EST   -0.18   0.23 -999 -999 -999  36.6 -99.9 1027.0 -9.9 -9.999 -99.9 -99.99 -9.99
2019/12/13 10:00 EST   -0.20   0.24 -999 -999 -999  36.9 -99.9 1026.8 -9.9 -9.999 -99.9 -99.99 -9.99
2019/12/13 10:06 EST   -0.21   0.24 -999 -999 -999  36.6 -99.9 1026.6 -9.9 -9.999 -99.9 -99.99 -9.99
2019/12/13 10:12 EST   -0.23   0.24 -999 -999 -999  36.5 -99.9 1026.3 -9.9 -9.999 -99.9 -99.99 -9.99
2019/12/13 10:18 EST   -0.24   0.24 -999 -999 -999  36.8 -99.9 1026.3 -9.9 -9.999 -99.9 -99.99 -9.99
2019/12/13 10:24 EST   -0.26   0.25 -999 -999 -999  36.8 -99.9 1026.2 -9.9 -9.999 -99.9 -99.99 -9.99
2019/12/13 10:30 EST   -0.27   0.25 -999 -999 -999  36.9 -99.9 1026.2 -9.9 -9.999 -99.9 -99.99 -9.99
2019/12/13 10:36 EST   -0.28   0.24 -999 -999 -999  37.0 -99.9 1026.2 -9.9 -9.999 -99.9 -99.99 -9.99
2019/12/13 10:42 EST   -0.29   0.20 -999 -999 -999  37.2 -99.9 1026.1 -9.9 -9.999 -99.9 -99.99 -9.99
2019/12/13 10:48 EST   -0.30   0.21 -999 -999 -999  37.3 -99.9 1025.9 -9.9 -9.999 -99.9 -99.99 -9.99
2019/12/13 10:54 EST   -0.31   0.21 -999 -999 -999  37.3 -99.9 1025.8 -9.9 -9.999 -99.9 -99.99 -9.99
2019/12/13 11:00 EST   -0.32   0.21 -999 -999 -999  37.4 -99.9 1025.7 -9.9 -9.999 -99.9 -99.99 -9.99
2019/12/13 11:06 EST   -0.32   0.21 -999 -999 -999  37.4 -99.9 1025.5 -9.9 -9.999 -99.9 -99.99 -9.99
2019/12/13 11:12 EST   -0.33   0.22 -999 -999 -999  37.5 -99.9 1025.4 -9.9 -9.999 -99.9 -99.99 -9.99
2019/12/13 11:18 EST   -0.33   0.24 -999 -999 -999  37.5 -99.9 1025.3 -9.9 -9.999 -99.9 -99.99 -9.99
2019/12/13 11:24 EST   -0.33   0.25 -999 -999 -999  37.8 -99.9 1025.0 -9.9 -9.999 -99.9 -99.99 -9.99
2019/12/13 11:30 EST   -0.33   0.28 -999 -999 -999  37.8 -99.9 1025.0 -9.9 -9.999 -99.9 -99.99 -9.99
2019/12/13 11:36 EST   -0.33   0.28 -999 -999 -999  37.6 -99.9 1024.8 -9.9 -9.999 -99.9 -99.99 -9.99
2019/12/13 11:42 EST   -0.33   0.30 -999 -999 -999  37.7 -99.9 1024.7 -9.9 -9.999 -99.9 -99.99 -9.99
2019/12/13 11:48 EST   -0.33   0.32 -999 -999 -999  37.8 -99.9 1024.6 -9.9 -9.999 -99.9 -99.99 -9.99
2019/12/13 11:54 EST   -0.32   0.34 -999 -999 -999  37.7 -99.9 1024.3 -9.9 -9.999 -99.9 -99.99 -9.99
2019/12/13 12:00 EST   -0.31   0.36 -999 -999 -999  37.7 -99.9 1024.2 -9.9 -9.999 -99.9 -99.99 -9.99
2019/12/13 12:06 EST   -0.30   0.39 -999 -999 -999  37.8 -99.9 1024.0 -9.9 -9.999 -99.9 -99.99 -9.99
2019/12/13 12:12 EST   -0.29   0.41 -999 -999 -999  37.9 -99.9 1023.9 -9.9 -9.999 -99.9 -99.99 -9.99
2019/12/13 12:18 EST   -0.28   0.45 -999 -999 -999  38.0 -99.9 1023.7 -9.9 -9.999 -99.9 -99.99 -9.99
2019/12/13 12:24 EST   -0.26   0.48 -999 -999 -999  38.2 -99.9 1023.7 -9.9 -9.999 -99.9 -99.99 -9.99
2019/12/13 12:30 EST   -0.24   0.50 -999 -999 -999  38.3 -99.9 1023.5 -9.9 -9.999 -99.9 -99.99 -9.99
2019/12/13 12:36 EST   -0.23   0.52 -999 -999 -999  38.4 -99.9 1023.3 -9.9 -9.999 -99.9 -99.99 -9.99
2019/12/13 12:42 EST   -0.21   0.54 -999 -999 -999  38.4 -99.9 1023.0 -9.9 -9.999 -99.9 -99.99 -9.99
2019/12/13 12:48 EST   -0.18   0.57 -999 -999 -999  38.6 -99.9 1022.8 -9.9 -9.999 -99.9 -99.99 -9.99
2019/12/13 12:54 EST   -0.16   0.61 -999 -999 -999  38.7 -99.9 1022.6 -9.9 -9.999 -99.9 -99.99 -9.99
2019/12/13 13:00 EST   -0.14   0.64 -999 -999 -999  38.8 -99.9 1022.4 -9.9 -9.999 -99.9 -99.99 -9.99
2019/12/13 13:06 EST   -0.11   0.67 -999 -999 -999  39.1 -99.9 1022.2 -9.9 -9.999 -99.9 -99.99 -9.99
2019/12/13 13:12 EST   -0.08   0.72 -999 -999 -999  39.3 -99.9 1022.0 -9.9 -9.999 -99.9 -99.99 -9.99
2019/12/13 13:18 EST   -0.05   0.75 -999 -999 -999  39.2 -99.9 1021.9 -9.9 -9.999 -99.9 -99.99 -9.99
2019/12/13 13:24 EST   -0.02   0.78 -999 -999 -999  39.4 -99.9 1021.7 -9.9 -9.999 -99.9 -99.99 -9.99
2019/12/13 13:30 EST    0.01   0.81 -999 -999 -999  39.4 -99.9 1021.6 -9.9 -9.999 -99.9 -99.99 -9.99
2019/12/13 13:36 EST    0.04   0.84 -999 -999 -999  39.5 -99.9 1021.5 -9.9 -9.999 -99.9 -99.99 -9.99
2019/12/13 13:42 EST    0.07   0.87 -999 -999 -999  39.7 -99.9 1021.6 -9.9 -9.999 -99.9 -99.99 -9.99
2019/12/13 13:48 EST    0.11   0.93 -999 -999 -999  39.8 -99.9 1021.5 -9.9 -9.999 -99.9 -99.99 -9.99
2019/12/13 13:54 EST    0.14   0.96 -999 -999 -999  40.0 -99.9 1021.4 -9.9 -9.999 -99.9 -99.99 -9.99
2019/12/13 14:00 EST    0.17   1.00 -999 -999 -999  40.0 -99.9 1021.3 -9.9 -9.999 -99.9 -99.99 -9.99
2019/12/13 14:06 EST    0.21   1.04 -999 -999 -999  40.0 -99.9 1021.2 -9.9 -9.999 -99.9 -99.99 -9.99
2019/12/13 14:12 EST    0.24   1.08 -999 -999 -999  40.1 -99.9 1021.0 -9.9 -9.999 -99.9 -99.99 -9.99
2019/12/13 14:18 EST    0.28   1.11 -999 -999 -999  40.1 -99.9 1020.9 -9.9 -9.999 -99.9 -99.99 -9.99
2019/12/13 14:24 EST    0.32   1.14 -999 -999 -999  40.3 -99.9 1020.8 -9.9 -9.999 -99.9 -99.99 -9.99
2019/12/13 14:30 EST    0.35   1.17 -999 -999 -999  40.3 -99.9 1020.7 -9.9 -9.999 -99.9 -99.99 -9.99
2019/12/13 14:36 EST    0.39   1.19 -999 -999 -999  40.4 -99.9 1020.5 -9.9 -9.999 -99.9 -99.99 -9.99
2019/12/13 14:42 EST    0.42   1.22 -999 -999 -999  40.5 -99.9 1020.4 -9.9 -9.999 -99.9 -99.99 -9.99
2019/12/13 14:48 EST    0.46   1.24 -999 -999 -999  40.6 -99.9 1020.2 -9.9 -9.999 -99.9 -99.99 -9.99
2019/12/13 14:54 EST    0.49   1.27 -999 -999 -999  40.8 -99.9 1020.0 -9.9 -9.999 -99.9 -99.99 -9.99
2019/12/13 15:00 EST    0.53   1.29 -999 -999 -999  40.8 -99.9 1019.8 -9.9 -9.999 -99.9 -99.99 -9.99
2019/12/13 15:06 EST    0.56   1.35 -999 -999 -999  40.9 -99.9 1019.7 -9.9 -9.999 -99.9 -99.99 -9.99
2019/12/13 15:12 EST    0.60   1.38 -999 -999 -999  41.0 -99.9 1019.6 -9.9 -9.999 -99.9 -99.99 -9.99
2019/12/13 15:18 EST    0.63   1.41 -999 -999 -999  41.0 -99.9 1019.5 -9.9 -9.999 -99.9 -99.99 -9.99
2019/12/13 15:24 EST    0.66   1.44 -999 -999 -999  41.2 -99.9 1019.3 -9.9 -9.999 -99.9 -99.99 -9.99
2019/12/13 15:30 EST    0.69   1.47 -999 -999 -999  41.4 -99.9 1019.2 -9.9 -9.999 -99.9 -99.99 -9.99
2019/12/13 15:36 EST    0.73   1.49 -999 -999 -999  41.5 -99.9 1019.1 -9.9 -9.999 -99.9 -99.99 -9.99
2019/12/13 15:42 EST    0.76   1.53 -999 -999 -999  41.5 -99.9 1019.0 -9.9 -9.999 -99.9 -99.99 -9.99
2019/12/13 15:48 EST    0.79   1.55 -999 -999 -999  41.5 -99.9 1019.0 -9.9 -9.999 -99.9 -99.99 -9.99
2019/12/13 15:54 EST    0.82   1.58 -999 -999 -999  41.8 -99.9 1018.8 -9.9 -9.999 -99.9 -99.99 -9.99
2019/12/13 16:00 EST    0.85   1.59 -999 -999 -999  42.0 -99.9 1018.7 -9.9 -9.999 -99.9 -99.99 -9.99
2019/12/13 16:06 EST    0.88   1.63 -999 -999 -999  42.0 -99.9 1018.7 -9.9 -9.999 -99.9 -99.99 -9.99
2019/12/13 16:12 EST    0.90   1.65 -999 -999 -999  42.1 -99.9 1018.9 -9.9 -9.999 -99.9 -99.99 -9.99
2019/12/13 16:18 EST    0.93   1.66 -999 -999 -999  42.1 -99.9 1018.7 -9.9 -9.999 -99.9 -99.99 -9.99
2019/12/13 16:24 EST    0.96   1.68 -999 -999 -999  42.1 -99.9 1018.6 -9.9 -9.999 -99.9 -99.99 -9.99
2019/12/13 16:30 EST    0.98   1.71 -999 -999 -999  42.1 -99.9 1018.5 -9.9 -9.999 -99.9 -99.99 -9.99
2019/12/13 16:36 EST    1.00   1.71 -999 -999 -999  42.2 -99.9 1018.3 -9.9 -9.999 -99.9 -99.99 -9.99
2019/12/13 16:42 EST    1.03   1.74 -999 -999 -999  42.3 -99.9 1018.2 -9.9 -9.999 -99.9 -99.99 -9.99
2019/12/13 16:48 EST    1.05   1.75 -999 -999 -999  42.3 -99.9 1018.0 -9.9 -9.999 -99.9 -99.99 -9.99
2019/12/13 16:54 EST    1.07   1.77 -999 -999 -999  42.2 -99.9 1017.9 -9.9 -9.999 -99.9 -99.99 -9.99
2019/12/13 17:00 EST    1.09   1.79 -999 -999 -999  42.3 -99.9 1017.7 -9.9 -9.999 -99.9 -99.99 -9.99
2019/12/13 17:06 EST    1.11   1.80 -999 -999 -999  42.4 -99.9 1017.5 -9.9 -9.999 -99.9 -99.99 -9.99
2019/12/13 17:12 EST    1.13   1.81 -999 -999 -999  42.3 -99.9 1017.5 -9.9 -9.999 -99.9 -99.99 -9.99
2019/12/13 17:18 EST    1.14   1.82 -999 -999 -999  42.2 -99.9 1017.4 -9.9 -9.999 -99.9 -99.99 -9.99
2019/12/13 17:24 EST    1.16   1.83 -999 -999 -999  42.3 -99.9 1017.3 -9.9 -9.999 -99.9 -99.99 -9.99
2019/12/13 17:30 EST    1.17   1.83 -999 -999 -999  42.4 -99.9 1017.2 -9.9 -9.999 -99.9 -99.99 -9.99
2019/12/13 17:36 EST    1.19   1.83 -999 -999 -999  42.5 -99.9 1017.1 -9.9 -9.999 -99.9 -99.99 -9.99
2019/12/13 17:42 EST    1.20   1.82 -999 -999 -999  42.6 -99.9 1016.9 -9.9 -9.999 -99.9 -99.99 -9.99
2019/12/13 17:48 EST    1.21   1.83 -999 -999 -999  42.7 -99.9 1016.8 -9.9 -9.999 -99.9 -99.99 -9.99
2019/12/13 17:54 EST    1.21   1.82 -999 -999 -999  42.8 -99.9 1016.6 -9.9 -9.999 -99.9 -99.99 -9.99
2019/12/13 18:00 EST    1.22   1.82 -999 -999 -999  42.8 -99.9 1016.5 -9.9 -9.999 -99.9 -99.99 -9.99
2019/12/13 18:06 EST    1.23   1.81 -999 -999 -999  43.0 -99.9 1016.3 -9.9 -9.999 -99.9 -99.99 -9.99
2019/12/13 18:12 EST    1.23   1.82 -999 -999 -999  43.4 -99.9 1016.2 -9.9 -9.999 -99.9 -99.99 -9.99
2019/12/13 18:18 EST    1.23   1.81 -999 -999 -999  43.6 -99.9 1016.0 -9.9 -9.999 -99.9 -99.99 -9.99
2019/12/13 18:24 EST    1.23   1.80 -999 -999 -999  43.8 -99.9 1016.0 -9.9 -9.999 -99.9 -99.99 -9.99
2019/12/13 18:30 EST    1.23   1.80 -999 -999 -999  43.7 -99.9 1015.9 -9.9 -9.999 -99.9 -99.99 -9.99
2019/12/13 18:36 EST    1.23   1.80 -999 -999 -999  43.6 -99.9 1015.8 -9.9 -9.999 -99.9 -99.99 -9.99
2019/12/13 18:42 EST    1.22   1.76 -999 -999 -999  43.4 -99.9 1015.7 -9.9 -9.999 -99.9 -99.99 -9.99
2019/12/13 18:48 EST    1.22   1.76 -999 -999 -999  43.8 -99.9 1015.7 -9.9 -9.999 -99.9 -99.99 -9.99
2019/12/13 18:54 EST    1.21   1.75 -999 -999 -999  43.5 -99.9 1015.6 -9.9 -9.999 -99.9 -99.99 -9.99
2019/12/13 19:00 EST    1.20   1.74 -999 -999 -999  43.1 -99.9 1015.4 -9.9 -9.999 -99.9 -99.99 -9.99
2019/12/13 19:06 EST    1.19   1.73 -999 -999 -999  43.1 -99.9 1015.0 -9.9 -9.999 -99.9 -99.99 -9.99
2019/12/13 19:12 EST    1.18   1.72 -999 -999 -999  43.4 -99.9 1015.0 -9.9 -9.999 -99.9 -99.99 -9.99
2019/12/13 19:18 EST    1.16   1.69 -999 -999 -999  43.2 -99.9 1014.9 -9.9 -9.999 -99.9 -99.99 -9.99
2019/12/13 19:24 EST    1.15   1.68 -999 -999 -999  43.0 -99.9 1014.8 -9.9 -9.999 -99.9 -99.99 -9.99
2019/12/13 19:30 EST    1.13   1.66 -999 -999 -999  43.6 -99.9 1014.7 -9.9 -9.999 -99.9 -99.99 -9.99
2019/12/13 19:36 EST    1.12   1.64 -999 -999 -999  43.9 -99.9 1014.8 -9.9 -9.999 -99.9 -99.99 -9.99
2019/12/13 19:42 EST    1.10   1.61 -999 -999 -999  43.5 -99.9 1014.7 -9.9 -9.999 -99.9 -99.99 -9.99
2019/12/13 19:48 EST    1.08   1.59 -999 -999 -999  43.4 -99.9 1014.5 -9.9 -9.999 -99.9 -99.99 -9.99
2019/12/13 19:54 EST    1.06   1.59 -999 -999 -999  43.5 -99.9 1014.2 -9.9 -9.999 -99.9 -99.99 -9.99
2019/12/13 20:00 EST    1.04   1.57 -999 -999 -999  43.7 -99.9 1013.9 -9.9 -9.999 -99.9 -99.99 -9.99
2019/12/13 20:06 EST    1.02   1.56 -999 -999 -999  44.1 -99.9 1013.8 -9.9 -9.999 -99.9 -99.99 -9.99
2019/12/13 20:12 EST    1.00   1.55 -999 -999 -999  44.3 -99.9 1013.6 -9.9 -9.999 -99.9 -99.99 -9.99
2019/12/13 20:18 EST    0.98   1.53 -999 -999 -999  43.7 -99.9 1013.5 -9.9 -9.999 -99.9 -99.99 -9.99
2019/12/13 20:24 EST    0.95   1.50 -999 -999 -999  43.9 -99.9 1013.1 -9.9 -9.999 -99.9 -99.99 -9.99
2019/12/13 20:30 EST    0.93   1.49 -999 -999 -999  44.7 -99.9 1012.8 -9.9 -9.999 -99.9 -99.99 -9.99
2019/12/13 20:36 EST    0.91   1.46 -999 -999 -999  45.3 -99.9 1012.6 -9.9 -9.999 -99.9 -99.99 -9.99
2019/12/13 20:42 EST    0.88   1.43 -999 -999 -999  45.7 -99.9 1012.4 -9.9 -9.999 -99.9 -99.99 -9.99
2019/12/13 20:48 EST    0.86   1.40 -999 -999 -999  45.7 -99.9 1012.2 -9.9 -9.999 -99.9 -99.99 -9.99
2019/12/13 20:54 EST    0.83   1.38 -999 -999 -999  45.9 -99.9 1012.0 -9.9 -9.999 -99.9 -99.99 -9.99
2019/12/13 21:00 EST    0.81   1.37 -999 -999 -999  45.7 -99.9 1011.8 -9.9 -9.999 -99.9 -99.99 -9.99
2019/12/13 21:06 EST    0.79   1.37 -999 -999 -999  46.1 -99.9 1011.6 -9.9 -9.999 -99.9 -99.99 -9.99
2019/12/13 21:12 EST    0.76   1.34 -999 -999 -999  46.3 -99.9 1011.5 -9.9 -9.999 -99.9 -99.99 -9.99
2019/12/13 21:18 EST    0.74   1.30 -999 -999 -999  46.6 -99.9 1011.3 -9.9 -9.999 -99.9 -99.99 -9.99
2019/12/13 21:24 EST    0.71   1.27 -999 -999 -999  46.3 -99.9 1011.2 -9.9 -9.999 -99.9 -99.99 -9.99
2019/12/13 21:30 EST    0.68   1.24 -999 -999 -999  46.4 -99.9 1011.1 -9.9 -9.999 -99.9 -99.99 -9.99
2019/12/13 21:36 EST    0.66   1.21 -999 -999 -999  46.4 -99.9 1010.9 -9.9 -9.999 -99.9 -99.99 -9.99
2019/12/13 21:42 EST    0.63   1.19 -999 -999 -999  46.4 -99.9 1010.8 -9.9 -9.999 -99.9 -99.99 -9.99
2019/12/13 21:48 EST    0.61   1.17 -999 -999 -999  46.4 -99.9 1010.6 -9.9 -9.999 -99.9 -99.99 -9.99
2019/12/13 21:54 EST    0.58   1.14 -999 -999 -999  46.4 -99.9 1010.4 -9.9 -9.999 -99.9 -99.99 -9.99
2019/12/13 22:00 EST    0.56   1.12 -999 -999 -999  46.4 -99.9 1010.3 -9.9 -9.999 -99.9 -99.99 -9.99
2019/12/13 22:06 EST    0.53   1.10 -999 -999 -999  46.3 -99.9 1010.1 -9.9 -9.999 -99.9 -99.99 -9.99
2019/12/13 22:12 EST    0.51   1.07 -999 -999 -999  46.4 -99.9 1009.9 -9.9 -9.999 -99.9 -99.99 -9.99
2019/12/13 22:18 EST    0.48   1.05 -999 -999 -999  46.4 -99.9 1009.8 -9.9 -9.999 -99.9 -99.99 -9.99
2019/12/13 22:24 EST    0.46   1.02 -999 -999 -999  46.6 -99.9 1009.7 -9.9 -9.999 -99.9 -99.99 -9.99
2019/12/13 22:30 EST    0.44   1.00 -999 -999 -999  46.4 -99.9 1009.6 -9.9 -9.999 -99.9 -99.99 -9.99
2019/12/13 22:36 EST    0.41   0.96 -999 -999 -999  46.4 -99.9 1009.4 -9.9 -9.999 -99.9 -99.99 -9.99
2019/12/13 22:42 EST    0.39   0.93 -999 -999 -999  46.4 -99.9 1009.3 -9.9 -9.999 -99.9 -99.99 -9.99
2019/12/13 22:48 EST    0.36   0.91 -999 -999 -999  46.7 -99.9 1009.2 -9.9 -9.999 -99.9 -99.99 -9.99
2019/12/13 22:54 EST    0.34   0.89 -999 -999 -999  47.1 -99.9 1009.1 -9.9 -9.999 -99.9 -99.99 -9.99
2019/12/13 23:00 EST    0.32   0.86 -999 -999 -999  47.2 -99.9 1009.0 -9.9 -9.999 -99.9 -99.99 -9.99
2019/12/13 23:06 EST    0.30   0.83 -999 -999 -999  47.2 -99.9 1008.8 -9.9 -9.999 -99.9 -99.99 -9.99
2019/12/13 23:12 EST    0.28   0.83 -999 -999 -999  47.0 -99.9 1008.7 -9.9 -9.999 -99.9 -99.99 -9.99
2019/12/13 23:18 EST    0.26   0.81 -999 -999 -999  46.5 -99.9 1008.4 -9.9 -9.999 -99.9 -99.99 -9.99
2019/12/13 23:24 EST    0.24   0.80 -999 -999 -999  46.8 -99.9 1008.3 -9.9 -9.999 -99.9 -99.99 -9.99
2019/12/13 23:30 EST    0.22   0.78 -999 -999 -999  47.2 -99.9 1008.1 -9.9 -9.999 -99.9 -99.99 -9.99
2019/12/13 23:36 EST    0.20   0.75 -999 -999 -999  46.9 -99.9 1007.9 -9.9 -9.999 -99.9 -99.99 -9.99
2019/12/13 23:42 EST    0.19   0.73 -999 -999 -999  46.9 -99.9 1007.6 -9.9 -9.999 -99.9 -99.99 -9.99
2019/12/13 23:48 EST    0.17   0.72 -999 -999 -999  47.0 -99.9 1007.3 -9.9 -9.999 -99.9 -99.99 -9.99
2019/12/13 23:54 EST    0.16   0.71 -999 -999 -999  47.1 -99.9 1007.0 -9.9 -9.999 -99.9 -99.99 -9.99
2019/12/14 00:00 EST    0.15   0.70 -999 -999 -999  47.6 -99.9 1006.8 -9.9 -9.999 -99.9 -99.99 -9.99
2019/12/14 00:06 EST    0.13   0.68 -999 -999 -999  47.4 -99.9 1006.6 -9.9 -9.999 -99.9 -99.99 -9.99
2019/12/14 00:12 EST    0.12   0.67 -999 -999 -999  47.9 -99.9 1006.4 -9.9 -9.999 -99.9 -99.99 -9.99
2019/12/14 00:18 EST    0.12   0.67 -999 -999 -999  48.0 -99.9 1006.3 -9.9 -9.999 -99.9 -99.99 -9.99
2019/12/14 00:24 EST    0.11   0.66 -999 -999 -999  48.3 -99.9 1006.2 -9.9 -9.999 -99.9 -99.99 -9.99
2019/12/14 00:30 EST    0.10   0.65 -999 -999 -999  48.6 -99.9 1006.1 -9.9 -9.999 -99.9 -99.99 -9.99
2019/12/14 00:36 EST    0.10   0.65 -999 -999 -999  47.0 -99.9 1005.9 -9.9 -9.999 -99.9 -99.99 -9.99
2019/12/14 00:42 EST    0.10   0.64 -999 -999 -999  46.9 -99.9 1005.7 -9.9 -9.999 -99.9 -99.99 -9.99
2019/12/14 00:48 EST    0.10   0.64 -999 -999 -999  47.5 -99.9 1005.5 -9.9 -9.999 -99.9 -99.99 -9.99
2019/12/14 00:54 EST    0.10   0.64 -999 -999 -999  47.2 -99.9 1005.4 -9.9 -9.999 -99.9 -99.99 -9.99
2019/12/14 01:00 EST    0.10   0.63 -999 -999 -999  47.7 -99.9 1005.2 -9.9 -9.999 -99.9 -99.99 -9.99
2019/12/14 01:06 EST    0.10   0.64 -999 -999 -999  47.4 -99.9 1005.0 -9.9 -9.999 -99.9 -99.99 -9.99
2019/12/14 01:12 EST    0.11   0.65 -999 -999 -999  47.0 -99.9 1004.9 -9.9 -9.999 -99.9 -99.99 -9.99
2019/12/14 01:18 EST    0.11   0.67 -999 -999 -999  47.4 -99.9 1004.7 -9.9 -9.999 -99.9 -99.99 -9.99
2019/12/14 01:24 EST    0.12   0.67 -999 -999 -999  47.5 -99.9 1004.5 -9.9 -9.999 -99.9 -99.99 -9.99
2019/12/14 01:30 EST    0.13   0.67 -999 -999 -999  47.5 -99.9 1004.3 -9.9 -9.999 -99.9 -99.99 -9.99
2019/12/14 01:36 EST    0.14   0.67 -999 -999 -999  47.6 -99.9 1004.1 -9.9 -9.999 -99.9 -99.99 -9.99
2019/12/14 01:42 EST    0.15   0.69 -999 -999 -999  47.7 -99.9 1004.0 -9.9 -9.999 -99.9 -99.99 -9.99
2019/12/14 01:48 EST    0.16   0.71 -999 -999 -999  47.8 -99.9 1003.9 -9.9 -9.999 -99.9 -99.99 -9.99
2019/12/14 01:54 EST    0.17   0.73 -999 -999 -999  47.9 -99.9 1003.8 -9.9 -9.999 -99.9 -99.99 -9.99
2019/12/14 02:00 EST    0.19   0.74 -999 -999 -999  47.5 -99.9 1003.8 -9.9 -9.999 -99.9 -99.99 -9.99
2019/12/14 02:06 EST    0.20   0.76 -999 -999 -999  47.3 -99.9 1003.7 -9.9 -9.999 -99.9 -99.99 -9.99
2019/12/14 02:12 EST    0.22   0.78 -999 -999 -999  47.2 -99.9 1003.7 -9.9 -9.999 -99.9 -99.99 -9.99
2019/12/14 02:18 EST    0.23   0.79 -999 -999 -999  47.0 -99.9 1003.5 -9.9 -9.999 -99.9 -99.99 -9.99
2019/12/14 02:24 EST    0.25   0.81 -999 -999 -999  47.2 -99.9 1003.7 -9.9 -9.999 -99.9 -99.99 -9.99
2019/12/14 02:30 EST    0.26   0.82 -999 -999 -999  46.8 -99.9 1003.2 -9.9 -9.999 -99.9 -99.99 -9.99
2019/12/14 02:36 EST    0.28   0.84 -999 -999 -999  47.0 -99.9 1002.6 -9.9 -9.999 -99.9 -99.99 -9.99
2019/12/14 02:42 EST    0.30   0.86 -999 -999 -999  48.0 -99.9 1002.2 -9.9 -9.999 -99.9 -99.99 -9.99
2019/12/14 02:48 EST    0.31   0.89 -999 -999 -999  48.4 -99.9 1002.0 -9.9 -9.999 -99.9 -99.99 -9.99
2019/12/14 02:54 EST    0.33   0.93 -999 -999 -999  48.4 -99.9 1002.0 -9.9 -9.999 -99.9 -99.99 -9.99
2019/12/14 03:00 EST    0.35   0.96 -999 -999 -999  48.2 -99.9 1002.1 -9.9 -9.999 -99.9 -99.99 -9.99
2019/12/14 03:06 EST    0.37   0.97 -999 -999 -999  47.3 -99.9 1001.8 -9.9 -9.999 -99.9 -99.99 -9.99
2019/12/14 03:12 EST    0.38 -99.99 -999 -999 -999 -99.9 -99.9 -999.9 -9.9 -9.999 -99.9 -99.99 -9.99
2019/12/14 03:18 EST    0.40   0.92 -999 -999 -999 -99.9 -99.9 -999.9 -9.9 -9.999 -99.9 -99.99 -9.99
2019/12/14 03:24 EST    0.41   0.98 -999 -999 -999  46.9 -99.9 1001.6 -9.9 -9.999 -99.9 -99.99 -9.99
2019/12/14 03:30 EST    0.43   1.01 -999 -999 -999  47.1 -99.9 1001.6 -9.9 -9.999 -99.9 -99.99 -9.99
2019/12/14 03:36 EST    0.45   1.04 -999 -999 -999  47.2 -99.9 1001.2 -9.9 -9.999 -99.9 -99.99 -9.99
2019/12/14 03:42 EST    0.46   1.09 -999 -999 -999  46.2 -99.9 1001.1 -9.9 -9.999 -99.9 -99.99 -9.99
2019/12/14 03:48 EST    0.47   1.13 -999 -999 -999  46.4 -99.9 1001.1 -9.9 -9.999 -99.9 -99.99 -9.99
2019/12/14 03:54 EST    0.49   1.15 -999 -999 -999  46.8 -99.9 1001.1 -9.9 -9.999 -99.9 -99.99 -9.99
2019/12/14 04:00 EST    0.50   1.17 -999 -999 -999  47.1 -99.9 1001.1 -9.9 -9.999 -99.9 -99.99 -9.99
2019/12/14 04:06 EST    0.52   1.18 -999 -999 -999  46.4 -99.9 1000.6 -9.9 -9.999 -99.9 -99.99 -9.99
2019/12/14 04:12 EST    0.53   1.20 -999 -999 -999  46.7 -99.9 1000.7 -9.9 -9.999 -99.9 -99.99 -9.99
2019/12/14 04:18 EST    0.54   1.23 -999 -999 -999  46.1 -99.9 1000.5 -9.9 -9.999 -99.9 -99.99 -9.99
2019/12/14 04:24 EST    0.55   1.24 -999 -999 -999  46.0 -99.9 1000.4 -9.9 -9.999 -99.9 -99.99 -9.99
2019/12/14 04:30 EST    0.56   1.26 -999 -999 -999  46.2 -99.9 1000.2 -9.9 -9.999 -99.9 -99.99 -9.99
2019/12/14 04:36 EST    0.57   1.29 -999 -999 -999  46.8 -99.9 1000.1 -9.9 -9.999 -99.9 -99.99 -9.99
2019/12/14 04:42 EST    0.58   1.31 -999 -999 -999  46.8 -99.9 1000.1 -9.9 -9.999 -99.9 -99.99 -9.99
2019/12/14 04:48 EST    0.59   1.35 -999 -999 -999  46.9 -99.9 1000.2 -9.9 -9.999 -99.9 -99.99 -9.99
2019/12/14 04:54 EST    0.60   1.36 -999 -999 -999  46.8 -99.9 1000.4 -9.9 -9.999 -99.9 -99.99 -9.99
2019/12/14 05:00 EST    0.61   1.37 -999 -999 -999  46.9 -99.9 1000.2 -9.9 -9.999 -99.9 -99.99 -9.99
2019/12/14 05:06 EST    0.62   1.38 -999 -999 -999  46.7 -99.9 1000.1 -9.9 -9.999 -99.9 -99.99 -9.99
2019/12/14 05:12 EST    0.62   1.35 -999 -999 -999  46.3 -99.9 1000.0 -9.9 -9.999 -99.9 -99.99 -9.99
2019/12/14 05:18 EST    0.63   1.37 -999 -999 -999  45.9 -99.9  999.9 -9.9 -9.999 -99.9 -99.99 -9.99
2019/12/14 05:24 EST    0.63   1.38 -999 -999 -999  46.0 -99.9  999.8 -9.9 -9.999 -99.9 -99.99 -9.99
2019/12/14 05:30 EST    0.64   1.40 -999 -999 -999  45.7 -99.9  999.6 -9.9 -9.999 -99.9 -99.99 -9.99
2019/12/14 05:36 EST    0.64   1.45 -999 -999 -999  45.8 -99.9  999.5 -9.9 -9.999 -99.9 -99.99 -9.99
2019/12/14 05:42 EST    0.64   1.44 -999 -999 -999  45.8 -99.9  999.4 -9.9 -9.999 -99.9 -99.99 -9.99
2019/12/14 05:48 EST    0.64   1.48 -999 -999 -999  45.9 -99.9  999.5 -9.9 -9.999 -99.9 -99.99 -9.99
2019/12/14 05:54 EST    0.64   1.50 -999 -999 -999  45.9 -99.9  999.6 -9.9 -9.999 -99.9 -99.99 -9.99
2019/12/14 06:00 EST    0.64   1.50 -999 -999 -999  45.7 -99.9  999.3 -9.9 -9.999 -99.9 -99.99 -9.99
2019/12/14 06:06 EST    0.64   1.50 -999 -999 -999  45.5 -99.9  999.2 -9.9 -9.999 -99.9 -99.99 -9.99
2019/12/14 06:12 EST    0.64   1.50 -999 -999 -999  45.5 -99.9  999.0 -9.9 -9.999 -99.9 -99.99 -9.99
2019/12/14 06:18 EST    0.63   1.49 -999 -999 -999  45.5 -99.9  999.2 -9.9 -9.999 -99.9 -99.99 -9.99
2019/12/14 06:24 EST    0.63   1.51 -999 -999 -999  45.5 -99.9  999.2 -9.9 -9.999 -99.9 -99.99 -9.99
2019/12/14 06:30 EST    0.62   1.50 -999 -999 -999  45.3 -99.9  998.7 -9.9 -9.999 -99.9 -99.99 -9.99
2019/12/14 06:36 EST    0.61   1.50 -999 -999 -999  45.2 -99.9  998.5 -9.9 -9.999 -99.9 -99.99 -9.99
2019/12/14 06:42 EST    0.60   1.51 -999 -999 -999  44.8 -99.9  998.0 -9.9 -9.999 -99.9 -99.99 -9.99
2019/12/14 06:48 EST    0.59   1.51 -999 -999 -999  45.0 -99.9  998.2 -9.9 -9.999 -99.9 -99.99 -9.99
2019/12/14 06:54 EST    0.58   1.50 -999 -999 -999  45.3 -99.9  998.2 -9.9 -9.999 -99.9 -99.99 -9.99
2019/12/14 07:00 EST    0.57   1.47 -999 -999 -999  45.4 -99.9  997.8 -9.9 -9.999 -99.9 -99.99 -9.99
2019/12/14 07:06 EST    0.55   1.44 -999 -999 -999  45.5 -99.9  997.9 -9.9 -9.999 -99.9 -99.99 -9.99
2019/12/14 07:12 EST    0.54   1.44 -999 -999 -999  45.5 -99.9  997.8 -9.9 -9.999 -99.9 -99.99 -9.99
2019/12/14 07:18 EST    0.52   1.45 -999 -999 -999  45.7 -99.9  998.5 -9.9 -9.999 -99.9 -99.99 -9.99
2019/12/14 07:24 EST    0.51   1.43 -999 -999 -999  45.7 -99.9  999.0 -9.9 -9.999 -99.9 -99.99 -9.99
2019/12/14 07:30 EST    0.49   1.43 -999 -999 -999  45.8 -99.9  999.1 -9.9 -9.999 -99.9 -99.99 -9.99
2019/12/14 07:36 EST    0.47   1.42 -999 -999 -999  45.9 -99.9  998.6 -9.9 -9.999 -99.9 -99.99 -9.99
2019/12/14 07:42 EST    0.45   1.43 -999 -999 -999  45.2 -99.9  997.7 -9.9 -9.999 -99.9 -99.99 -9.99
2019/12/14 07:48 EST    0.43   1.42 -999 -999 -999  45.2 -99.9  997.4 -9.9 -9.999 -99.9 -99.99 -9.99
2019/12/14 07:54 EST    0.41   1.40 -999 -999 -999  45.3 -99.9  997.4 -9.9 -9.999 -99.9 -99.99 -9.99
2019/12/14 08:00 EST    0.39   1.39 -999 -999 -999  45.3 -99.9  997.2 -9.9 -9.999 -99.9 -99.99 -9.99
2019/12/14 08:06 EST    0.37   1.36 -999 -999 -999  45.5 -99.9  997.3 -9.9 -9.999 -99.9 -99.99 -9.99
2019/12/14 08:12 EST    0.34   1.34 -999 -999 -999  45.9 -99.9  997.4 -9.9 -9.999 -99.9 -99.99 -9.99
2019/12/14 08:18 EST    0.32   1.32 -999 -999 -999  45.9 -99.9  997.2 -9.9 -9.999 -99.9 -99.99 -9.99
2019/12/14 08:24 EST    0.30   1.31 -999 -999 -999  46.2 -99.9  997.1 -9.9 -9.999 -99.9 -99.99 -9.99
2019/12/14 08:30 EST    0.27   1.31 -999 -999 -999  46.0 -99.9  996.9 -9.9 -9.999 -99.9 -99.99 -9.99
2019/12/14 08:36 EST    0.25   1.29 -999 -999 -999  45.5 -99.9  996.5 -9.9 -9.999 -99.9 -99.99 -9.99
2019/12/14 08:42 EST    0.23   1.27 -999 -999 -999  45.7 -99.9  996.5 -9.9 -9.999 -99.9 -99.99 -9.99
2019/12/14 08:48 EST    0.20   1.25 -999 -999 -999  46.0 -99.9  996.6 -9.9 -9.999 -99.9 -99.99 -9.99
2019/12/14 08:54 EST    0.18   1.23 -999 -999 -999  46.5 -99.9  996.6 -9.9 -9.999 -99.9 -99.99 -9.99
2019/12/14 09:00 EST    0.16   1.19 -999 -999 -999  46.7 -99.9  996.5 -9.9 -9.999 -99.9 -99.99 -9.99
2019/12/14 09:06 EST    0.13   1.19 -999 -999 -999  46.9 -99.9  996.4 -9.9 -9.999 -99.9 -99.99 -9.99
2019/12/14 09:12 EST    0.11   1.16 -999 -999 -999  46.5 -99.9  996.0 -9.9 -9.999 -99.9 -99.99 -9.99
2019/12/14 09:18 EST    0.09   1.14 -999 -999 -999  46.3 -99.9  995.8 -9.9 -9.999 -99.9 -99.99 -9.99
2019/12/14 09:24 EST    0.06   1.14 -999 -999 -999  46.6 -99.9  995.8 -9.9 -9.999 -99.9 -99.99 -9.99
2019/12/14 09:30 EST    0.04   1.12 -999 -999 -999  46.5 -99.9  995.7 -9.9 -9.999 -99.9 -99.99 -9.99
2019/12/14 09:36 EST    0.02   1.12 -999 -999 -999  46.2 -99.9  995.3 -9.9 -9.999 -99.9 -99.99 -9.99
2019/12/14 09:42 EST   -0.00   1.11 -999 -999 -999  45.6 -99.9  994.8 -9.9 -9.999 -99.9 -99.99 -9.99
2019/12/14 09:48 EST   -0.02   1.10 -999 -999 -999  45.6 -99.9  994.6 -9.9 -9.999 -99.9 -99.99 -9.99
2019/12/14 09:54 EST   -0.05   1.07 -999 -999 -999  46.2 -99.9  994.7 -9.9 -9.999 -99.9 -99.99 -9.99
2019/12/14 10:00 EST   -0.07   1.04 -999 -999 -999  46.7 -99.9  994.6 -9.9 -9.999 -99.9 -99.99 -9.99
2019/12/14 10:06 EST   -0.09   1.01 -999 -999 -999  47.2 -99.9  994.4 -9.9 -9.999 -99.9 -99.99 -9.99
2019/12/14 10:12 EST   -0.11   1.01 -999 -999 -999  47.1 -99.9  994.6 -9.9 -9.999 -99.9 -99.99 -9.99
2019/12/14 10:18 EST   -0.12   0.98 -999 -999 -999  47.0 -99.9  994.5 -9.9 -9.999 -99.9 -99.99 -9.99
2019/12/14 10:24 EST   -0.14   0.97 -999 -999 -999  46.7 -99.9  994.7 -9.9 -9.999 -99.9 -99.99 -9.99
2019/12/14 10:30 EST   -0.16   0.97 -999 -999 -999  46.7 -99.9  994.7 -9.9 -9.999 -99.9 -99.99 -9.99
2019/12/14 10:36 EST   -0.18   0.96 -999 -999 -999  47.0 -99.9  994.7 -9.9 -9.999 -99.9 -99.99 -9.99
2019/12/14 10:42 EST   -0.19   0.95 -999 -999 -999  47.2 -99.9  994.5 -9.9 -9.999 -99.9 -99.99 -9.99
2019/12/14 10:48 EST   -0.21   0.95 -999 -999 -999  47.5 -99.9  994.1 -9.9 -9.999 -99.9 -99.99 -9.99
2019/12/14 10:54 EST   -0.22   0.94 -999 -999 -999  47.0 -99.9  993.5 -9.9 -9.999 -99.9 -99.99 -9.99
2019/12/14 11:00 EST   -0.24   0.92 -999 -999 -999  47.0 -99.9  993.4 -9.9 -9.999 -99.9 -99.99 -9.99
2019/12/14 11:06 EST   -0.25   0.91 -999 -999 -999  47.9 -99.9  993.5 -9.9 -9.999 -99.9 -99.99 -9.99
2019/12/14 11:12 EST   -0.26   0.88 -999 -999 -999  47.4 -99.9  993.4 -9.9 -9.999 -99.9 -99.99 -9.99
2019/12/14 11:18 EST   -0.28   0.87 -999 -999 -999  47.4 -99.9  993.2 -9.9 -9.999 -99.9 -99.99 -9.99
2019/12/14 11:24 EST   -0.29   0.86 -999 -999 -999  47.4 -99.9  993.0 -9.9 -9.999 -99.9 -99.99 -9.99
2019/12/14 11:30 EST   -0.30   0.86 -999 -999 -999  47.4 -99.9  992.9 -9.9 -9.999 -99.9 -99.99 -9.99
2019/12/14 11:36 EST   -0.31   0.87 -999 -999 -999  47.6 -99.9  992.7 -9.9 -9.999 -99.9 -99.99 -9.99
2019/12/14 11:42 EST   -0.31   0.88 -999 -999 -999  47.9 -99.9  992.6 -9.9 -9.999 -99.9 -99.99 -9.99
2019/12/14 11:48 EST   -0.32   0.87 -999 -999 -999  48.0 -99.9  992.5 -9.9 -9.999 -99.9 -99.99 -9.99
2019/12/14 11:54 EST   -0.33   0.87 -999 -999 -999  48.2 -99.9  992.4 -9.9 -9.999 -99.9 -99.99 -9.99
2019/12/14 12:00 EST   -0.33   0.86 -999 -999 -999  48.3 -99.9  992.0 -9.9 -9.999 -99.9 -99.99 -9.99
2019/12/14 12:06 EST   -0.33   0.87 -999 -999 -999  48.5 -99.9  991.9 -9.9 -9.999 -99.9 -99.99 -9.99
2019/12/14 12:12 EST   -0.33   0.89 -999 -999 -999  48.9 -99.9  991.6 -9.9 -9.999 -99.9 -99.99 -9.99
2019/12/14 12:18 EST   -0.33   0.90 -999 -999 -999  48.8 -99.9  991.5 -9.9 -9.999 -99.9 -99.99 -9.99
2019/12/14 12:24 EST   -0.33   0.91 -999 -999 -999  48.6 -99.9  992.2 -9.9 -9.999 -99.9 -99.99 -9.99
2019/12/14 12:30 EST   -0.33   0.93 -999 -999 -999  48.4 -99.9  992.7 -9.9 -9.999 -99.9 -99.99 -9.99
2019/12/14 12:36 EST   -0.32   0.94 -999 -999 -999  48.0 -99.9  993.4 -9.9 -9.999 -99.9 -99.99 -9.99
2019/12/14 12:42 EST   -0.31   0.97 -999 -999 -999  47.2 -99.9  993.1 -9.9 -9.999 -99.9 -99.99 -9.99
2019/12/14 12:48 EST   -0.30   0.98 -999 -999 -999  47.0 -99.9  992.6 -9.9 -9.999 -99.9 -99.99 -9.99
2019/12/14 12:54 EST   -0.29   1.02 -999 -999 -999  47.2 -99.9  992.4 -9.9 -9.999 -99.9 -99.99 -9.99
2019/12/14 13:00 EST   -0.28   1.05 -999 -999 -999  46.9 -99.9  992.2 -9.9 -9.999 -99.9 -99.99 -9.99
2019/12/14 13:06 EST   -0.27   1.09 -999 -999 -999  46.9 -99.9  992.1 -9.9 -9.999 -99.9 -99.99 -9.99
2019/12/14 13:12 EST   -0.25   1.10 -999 -999 -999  47.0 -99.9  992.0 -9.9 -9.999 -99.9 -99.99 -9.99
2019/12/14 13:18 EST   -0.23   1.12 -999 -999 -999  47.0 -99.9  992.2 -9.9 -9.999 -99.9 -99.99 -9.99
2019/12/14 13:24 EST   -0.21   1.15 -999 -999 -999  46.8 -99.9  992.2 -9.9 -9.999 -99.9 -99.99 -9.99
2019/12/14 13:30 EST   -0.19   1.18 -999 -999 -999  46.9 -99.9  992.3 -9.9 -9.999 -99.9 -99.99 -9.99
2019/12/14 13:36 EST   -0.17   1.21 -999 -999 -999  47.2 -99.9  992.3 -9.9 -9.999 -99.9 -99.99 -9.99
2019/12/14 13:42 EST   -0.15   1.24 -999 -999 -999  47.2 -99.9  992.4 -9.9 -9.999 -99.9 -99.99 -9.99
2019/12/14 13:48 EST   -0.12   1.27 -999 -999 -999  47.6 -99.9  992.5 -9.9 -9.999 -99.9 -99.99 -9.99
2019/12/14 13:54 EST   -0.10   1.30 -999 -999 -999  47.7 -99.9  992.4 -9.9 -9.999 -99.9 -99.99 -9.99
2019/12/14 14:00 EST   -0.07   1.34 -999 -999 -999  48.0 -99.9  992.5 -9.9 -9.999 -99.9 -99.99 -9.99
2019/12/14 14:06 EST   -0.04   1.38 -999 -999 -999  48.2 -99.9  992.6 -9.9 -9.999 -99.9 -99.99 -9.99
2019/12/14 14:12 EST   -0.01   1.41 -999 -999 -999  48.2 -99.9  992.6 -9.9 -9.999 -99.9 -99.99 -9.99
2019/12/14 14:18 EST    0.02   1.45 -999 -999 -999  48.4 -99.9  992.8 -9.9 -9.999 -99.9 -99.99 -9.99
2019/12/14 14:24 EST    0.06   1.50 -999 -999 -999  48.2 -99.9  992.9 -9.9 -9.999 -99.9 -99.99 -9.99
2019/12/14 14:30 EST    0.09   1.52 -999 -999 -999  48.3 -99.9  992.7 -9.9 -9.999 -99.9 -99.99 -9.99
2019/12/14 14:36 EST    0.12   1.55 -999 -999 -999  48.4 -99.9  992.5 -9.9 -9.999 -99.9 -99.99 -9.99
2019/12/14 14:42 EST    0.16   1.59 -999 -999 -999  48.7 -99.9  992.4 -9.9 -9.999 -99.9 -99.99 -9.99
2019/12/14 14:48 EST    0.19   1.64 -999 -999 -999  48.9 -99.9  992.5 -9.9 -9.999 -99.9 -99.99 -9.99
2019/12/14 14:54 EST    0.23   1.70 -999 -999 -999  48.8 -99.9  992.3 -9.9 -9.999 -99.9 -99.99 -9.99
2019/12/14 15:00 EST    0.26   1.73 -999 -999 -999  49.0 -99.9  992.5 -9.9 -9.999 -99.9 -99.99 -9.99
2019/12/14 15:06 EST    0.30   1.77 -999 -999 -999  49.2 -99.9  992.5 -9.9 -9.999 -99.9 -99.99 -9.99
2019/12/14 15:12 EST    0.34   1.80 -999 -999 -999  49.0 -99.9  992.7 -9.9 -9.999 -99.9 -99.99 -9.99
2019/12/14 15:18 EST    0.37   1.84 -999 -999 -999  49.2 -99.9  993.0 -9.9 -9.999 -99.9 -99.99 -9.99
2019/12/14 15:24 EST    0.41   1.87 -999 -999 -999  49.1 -99.9  993.1 -9.9 -9.999 -99.9 -99.99 -9.99
2019/12/14 15:30 EST    0.44   1.90 -999 -999 -999  49.0 -99.9  993.1 -9.9 -9.999 -99.9 -99.99 -9.99
2019/12/14 15:36 EST    0.48   1.95 -999 -999 -999  49.0 -99.9  993.3 -9.9 -9.999 -99.9 -99.99 -9.99
2019/12/14 15:42 EST    0.51   1.99 -999 -999 -999  49.0 -99.9  993.3 -9.9 -9.999 -99.9 -99.99 -9.99
2019/12/14 15:48 EST    0.55   2.01 -999 -999 -999  49.0 -99.9  993.3 -9.9 -9.999 -99.9 -99.99 -9.99
2019/12/14 15:54 EST    0.58   2.05 -999 -999 -999  48.9 -99.9  993.4 -9.9 -9.999 -99.9 -99.99 -9.99
2019/12/14 16:00 EST    0.62   2.07 -999 -999 -999  48.9 -99.9  993.5 -9.9 -9.999 -99.9 -99.99 -9.99
2019/12/14 16:06 EST    0.65   2.10 -999 -999 -999  48.8 -99.9  993.7 -9.9 -9.999 -99.9 -99.99 -9.99
2019/12/14 16:12 EST    0.68   2.14 -999 -999 -999  48.9 -99.9  993.9 -9.9 -9.999 -99.9 -99.99 -9.99
2019/12/14 16:18 EST    0.71   2.17 -999 -999 -999  48.8 -99.9  994.1 -9.9 -9.999 -99.9 -99.99 -9.99
2019/12/14 16:24 EST    0.75   2.19 -999 -999 -999  48.7 -99.9  994.2 -9.9 -9.999 -99.9 -99.99 -9.99
2019/12/14 16:30 EST    0.78   2.21 -999 -999 -999  48.7 -99.9  994.3 -9.9 -9.999 -99.9 -99.99 -9.99
2019/12/14 16:36 EST    0.81   2.24 -999 -999 -999  48.7 -99.9  994.4 -9.9 -9.999 -99.9 -99.99 -9.99
2019/12/14 16:42 EST    0.84   2.28 -999 -999 -999  48.7 -99.9  994.4 -9.9 -9.999 -99.9 -99.99 -9.99
2019/12/14 16:48 EST    0.87   2.31 -999 -999 -999  48.6 -99.9  994.6 -9.9 -9.999 -99.9 -99.99 -9.99
2019/12/14 16:54 EST    0.89   2.35 -999 -999 -999  48.7 -99.9  994.7 -9.9 -9.999 -99.9 -99.99 -9.99
2019/12/14 17:00 EST    0.92   2.38 -999 -999 -999  48.6 -99.9  994.8 -9.9 -9.999 -99.9 -99.99 -9.99
2019/12/14 17:06 EST    0.95   2.39 -999 -999 -999  48.6 -99.9  995.1 -9.9 -9.999 -99.9 -99.99 -9.99
2019/12/14 17:12 EST    0.97   2.41 -999 -999 -999  48.6 -99.9  995.2 -9.9 -9.999 -99.9 -99.99 -9.99
2019/12/14 17:18 EST    1.00   2.43 -999 -999 -999  48.7 -99.9  995.4 -9.9 -9.999 -99.9 -99.99 -9.99
2019/12/14 17:24 EST    1.02   2.44 -999 -999 -999  48.6 -99.9  995.5 -9.9 -9.999 -99.9 -99.99 -9.99
2019/12/14 17:30 EST    1.04   2.47 -999 -999 -999  48.6 -99.9  995.4 -9.9 -9.999 -99.9 -99.99 -9.99
2019/12/14 17:36 EST    1.06   2.48 -999 -999 -999  48.6 -99.9  995.5 -9.9 -9.999 -99.9 -99.99 -9.99
2019/12/14 17:42 EST    1.08   2.49 -999 -999 -999  48.6 -99.9  995.6 -9.9 -9.999 -99.9 -99.99 -9.99
2019/12/14 17:48 EST    1.10   2.51 -999 -999 -999  48.9 -99.9  995.8 -9.9 -9.999 -99.9 -99.99 -9.99
2019/12/14 17:54 EST    1.12   2.51 -999 -999 -999  49.0 -99.9  995.9 -9.9 -9.999 -99.9 -99.99 -9.99
2019/12/14 18:00 EST    1.14   2.54 -999 -999 -999  49.1 -99.9  996.0 -9.9 -9.999 -99.9 -99.99 -9.99
2019/12/14 18:06 EST    1.15   2.53 -999 -999 -999  49.3 -99.9  996.2 -9.9 -9.999 -99.9 -99.99 -9.99
2019/12/14 18:12 EST    1.17   2.54 -999 -999 -999  49.2 -99.9  996.2 -9.9 -9.999 -99.9 -99.99 -9.99
2019/12/14 18:18 EST    1.18   2.55 -999 -999 -999  49.3 -99.9  996.4 -9.9 -9.999 -99.9 -99.99 -9.99
2019/12/14 18:24 EST    1.19   2.56 -999 -999 -999  49.3 -99.9  996.5 -9.9 -9.999 -99.9 -99.99 -9.99
2019/12/14 18:30 EST    1.20   2.57 -999 -999 -999  49.1 -99.9  996.7 -9.9 -9.999 -99.9 -99.99 -9.99
2019/12/14 18:36 EST    1.21   2.57 -999 -999 -999  49.0 -99.9  996.9 -9.9 -9.999 -99.9 -99.99 -9.99
2019/12/14 18:42 EST    1.22   2.57 -999 -999 -999  48.8 -99.9  997.0 -9.9 -9.999 -99.9 -99.99 -9.99
2019/12/14 18:48 EST    1.22   2.57 -999 -999 -999  48.7 -99.9  997.2 -9.9 -9.999 -99.9 -99.99 -9.99
2019/12/14 18:54 EST    1.23   2.57 -999 -999 -999  48.6 -99.9  997.5 -9.9 -9.999 -99.9 -99.99 -9.99
2019/12/14 19:00 EST    1.23   2.57 -999 -999 -999  48.4 -99.9  997.7 -9.9 -9.999 -99.9 -99.99 -9.99
2019/12/14 19:06 EST    1.23   2.56 -999 -999 -999  48.3 -99.9  997.6 -9.9 -9.999 -99.9 -99.99 -9.99
2019/12/14 19:12 EST    1.23   2.54 -999 -999 -999  48.2 -99.9  997.8 -9.9 -9.999 -99.9 -99.99 -9.99
2019/12/14 19:18 EST    1.23   2.53 -999 -999 -999  48.0 -99.9  997.9 -9.9 -9.999 -99.9 -99.99 -9.99
2019/12/14 19:24 EST    1.22   2.52 -999 -999 -999  47.9 -99.9  998.1 -9.9 -9.999 -99.9 -99.99 -9.99
2019/12/14 19:30 EST    1.22   2.51 -999 -999 -999  47.7 -99.9  998.2 -9.9 -9.999 -99.9 -99.99 -9.99
2019/12/14 19:36 EST    1.21   2.51 -999 -999 -999  47.6 -99.9  998.3 -9.9 -9.999 -99.9 -99.99 -9.99
2019/12/14 19:42 EST    1.20   2.50 -999 -999 -999  47.5 -99.9  998.5 -9.9 -9.999 -99.9 -99.99 -9.99
2019/12/14 19:48 EST    1.19   2.48 -999 -999 -999  47.4 -99.9  998.7 -9.9 -9.999 -99.9 -99.99 -9.99
2019/12/14 19:54 EST    1.18   2.46 -999 -999 -999  47.3 -99.9  998.8 -9.9 -9.999 -99.9 -99.99 -9.99
2019/12/14 20:00 EST    1.17   2.44 -999 -999 -999  47.2 -99.9  999.0 -9.9 -9.999 -99.9 -99.99 -9.99
2019/12/14 20:06 EST    1.15   2.43 -999 -999 -999  47.2 -99.9  999.1 -9.9 -9.999 -99.9 -99.99 -9.99
2019/12/14 20:12 EST    1.14   2.42 -999 -999 -999  47.2 -99.9  999.3 -9.9 -9.999 -99.9 -99.99 -9.99
2019/12/14 20:18 EST    1.12   2.40 -999 -999 -999  47.1 -99.9  999.5 -9.9 -9.999 -99.9 -99.99 -9.99
2019/12/14 20:24 EST    1.11   2.38 -999 -999 -999  46.9 -99.9  999.6 -9.9 -9.999 -99.9 -99.99 -9.99
2019/12/14 20:30 EST    1.09   2.35 -999 -999 -999  46.7 -99.9  999.7 -9.9 -9.999 -99.9 -99.99 -9.99
2019/12/14 20:36 EST    1.07   2.32 -999 -999 -999  46.5 -99.9  999.9 -9.9 -9.999 -99.9 -99.99 -9.99
2019/12/14 20:42 EST    1.05   2.30 -999 -999 -999  46.6 -99.9 1000.0 -9.9 -9.999 -99.9 -99.99 -9.99
2019/12/14 20:48 EST    1.03   2.28 -999 -999 -999  46.5 -99.9 1000.0 -9.9 -9.999 -99.9 -99.99 -9.99
2019/12/14 20:54 EST    1.00   2.25 -999 -999 -999  46.6 -99.9 1000.1 -9.9 -9.999 -99.9 -99.99 -9.99
2019/12/14 21:00 EST    0.98 -99.99 -999 -999 -999 -99.9 -99.9 -999.9 -9.9 -9.999 -99.9 -99.99 -9.99
2019/12/14 21:06 EST    0.96 -99.99 -999 -999 -999 -99.9 -99.9 -999.9 -9.9 -9.999 -99.9 -99.99 -9.99
2019/12/14 21:12 EST    0.94   2.20 -999 -999 -999  46.3 -99.9 1000.4 -9.9 -9.999 -99.9 -99.99 -9.99
2019/12/14 21:18 EST    0.91   2.18 -999 -999 -999  46.1 -99.9 1000.3 -9.9 -9.999 -99.9 -99.99 -9.99
2019/12/14 21:24 EST    0.89   2.16 -999 -999 -999  46.0 -99.9 1000.3 -9.9 -9.999 -99.9 -99.99 -9.99
2019/12/14 21:30 EST    0.86   2.13 -999 -999 -999  45.8 -99.9 1000.3 -9.9 -9.999 -99.9 -99.99 -9.99
2019/12/14 21:36 EST    0.84   2.12 -999 -999 -999  45.7 -99.9 1000.5 -9.9 -9.999 -99.9 -99.99 -9.99
2019/12/14 21:42 EST    0.81   2.08 -999 -999 -999  45.7 -99.9 1000.8 -9.9 -9.999 -99.9 -99.99 -9.99
2019/12/14 21:48 EST    0.79   2.04 -999 -999 -999  45.8 -99.9 1000.8 -9.9 -9.999 -99.9 -99.99 -9.99
2019/12/14 21:54 EST    0.76   2.01 -999 -999 -999  45.6 -99.9 1000.9 -9.9 -9.999 -99.9 -99.99 -9.99
2019/12/14 22:00 EST    0.74   2.00 -999 -999 -999  45.6 -99.9 1001.0 -9.9 -9.999 -99.9 -99.99 -9.99
2019/12/14 22:06 EST    0.71   1.98 -999 -999 -999  45.5 -99.9 1001.1 -9.9 -9.999 -99.9 -99.99 -9.99
2019/12/14 22:12 EST    0.69   1.96 -999 -999 -999  45.4 -99.9 1001.2 -9.9 -9.999 -99.9 -99.99 -9.99
2019/12/14 22:18 EST    0.66   1.93 -999 -999 -999  45.5 -99.9 1001.3 -9.9 -9.999 -99.9 -99.99 -9.99
2019/12/14 22:24 EST    0.63   1.91 -999 -999 -999  45.5 -99.9 1001.3 -9.9 -9.999 -99.9 -99.99 -9.99
2019/12/14 22:30 EST    0.61   1.89 -999 -999 -999  45.4 -99.9 1001.3 -9.9 -9.999 -99.9 -99.99 -9.99
2019/12/14 22:36 EST    0.58   1.88 -999 -999 -999  45.4 -99.9 1001.3 -9.9 -9.999 -99.9 -99.99 -9.99
2019/12/14 22:42 EST    0.56   1.85 -999 -999 -999  45.5 -99.9 1001.4 -9.9 -9.999 -99.9 -99.99 -9.99
2019/12/14 22:48 EST    0.53   1.83 -999 -999 -999  45.5 -99.9 1001.5 -9.9 -9.999 -99.9 -99.99 -9.99
2019/12/14 22:54 EST    0.51   1.81 -999 -999 -999  45.4 -99.9 1001.7 -9.9 -9.999 -99.9 -99.99 -9.99
2019/12/14 23:00 EST    0.48   1.80 -999 -999 -999  45.4 -99.9 1001.9 -9.9 -9.999 -99.9 -99.99 -9.99
2019/12/14 23:06 EST    0.46   1.78 -999 -999 -999  45.3 -99.9 1002.0 -9.9 -9.999 -99.9 -99.99 -9.99
2019/12/14 23:12 EST    0.43   1.75 -999 -999 -999  45.2 -99.9 1002.2 -9.9 -9.999 -99.9 -99.99 -9.99
2019/12/14 23:18 EST    0.41   1.73 -999 -999 -999  45.2 -99.9 1002.3 -9.9 -9.999 -99.9 -99.99 -9.99
2019/12/14 23:24 EST    0.38   1.70 -999 -999 -999  44.9 -99.9 1002.5 -9.9 -9.999 -99.9 -99.99 -9.99
2019/12/14 23:30 EST    0.36   1.68 -999 -999 -999  44.7 -99.9 1002.5 -9.9 -9.999 -99.9 -99.99 -9.99
2019/12/14 23:36 EST    0.34   1.65 -999 -999 -999  44.5 -99.9 1002.6 -9.9 -9.999 -99.9 -99.99 -9.99
2019/12/14 23:42 EST    0.32   1.62 -999 -999 -999  44.5 -99.9 1002.7 -9.9 -9.999 -99.9 -99.99 -9.99
2019/12/14 23:48 EST    0.29   1.60 -999 -999 -999  44.4 -99.9 1002.9 -9.9 -9.999 -99.9 -99.99 -9.99
2019/12/14 23:54 EST    0.27   1.59 -999 -999 -999  44.3 -99.9 1003.0 -9.9 -9.999 -99.9 -99.99 -9.99
2019/12/15 00:00 EST    0.25   1.57 -999 -999 -999  44.2 -99.9 1003.1 -9.9 -9.999 -99.9 -99.99 -9.99
2019/12/15 00:06 EST    0.23   1.56 -999 -999 -999  44.1 -99.9 1003.3 -9.9 -9.999 -99.9 -99.99 -9.99
2019/12/15 00:12 EST    0.21   1.54 -999 -999 -999  44.2 -99.9 1003.4 -9.9 -9.999 -99.9 -99.99 -9.99
2019/12/15 00:18 EST    0.19   1.54 -999 -999 -999  44.1 -99.9 1003.5 -9.9 -9.999 -99.9 -99.99 -9.99
2019/12/15 00:24 EST    0.18   1.52 -999 -999 -999  43.9 -99.9 1003.6 -9.9 -9.999 -99.9 -99.99 -9.99
2019/12/15 00:30 EST    0.16   1.50 -999 -999 -999  43.9 -99.9 1003.7 -9.9 -9.999 -99.9 -99.99 -9.99
2019/12/15 00:36 EST    0.15   1.48 -999 -999 -999  43.9 -99.9 1003.9 -9.9 -9.999 -99.9 -99.99 -9.99
2019/12/15 00:42 EST    0.13   1.47 -999 -999 -999  43.9 -99.9 1004.0 -9.9 -9.999 -99.9 -99.99 -9.99
2019/12/15 00:48 EST    0.12   1.46 -999 -999 -999  43.9 -99.9 1004.2 -9.9 -9.999 -99.9 -99.99 -9.99
2019/12/15 00:54 EST    0.11   1.45 -999 -999 -999  43.9 -99.9 1004.4 -9.9 -9.999 -99.9 -99.99 -9.99
2019/12/15 01:00 EST    0.10   1.44 -999 -999 -999  43.9 -99.9 1004.4 -9.9 -9.999 -99.9 -99.99 -9.99
2019/12/15 01:06 EST    0.09   1.42 -999 -999 -999  44.1 -99.9 1004.5 -9.9 -9.999 -99.9 -99.99 -9.99
2019/12/15 01:12 EST    0.08   1.40 -999 -999 -999  44.0 -99.9 1004.5 -9.9 -9.999 -99.9 -99.99 -9.99
2019/12/15 01:18 EST    0.08   1.39 -999 -999 -999  43.9 -99.9 1004.6 -9.9 -9.999 -99.9 -99.99 -9.99
2019/12/15 01:24 EST    0.07   1.39 -999 -999 -999  44.0 -99.9 1004.8 -9.9 -9.999 -99.9 -99.99 -9.99
2019/12/15 01:30 EST    0.07   1.37 -999 -999 -999  44.1 -99.9 1004.9 -9.9 -9.999 -99.9 -99.99 -9.99
2019/12/15 01:36 EST    0.07   1.37 -999 -999 -999  43.9 -99.9 1004.9 -9.9 -9.999 -99.9 -99.99 -9.99
2019/12/15 01:42 EST    0.07   1.37 -999 -999 -999  43.9 -99.9 1005.1 -9.9 -9.999 -99.9 -99.99 -9.99
2019/12/15 01:48 EST    0.07   1.36 -999 -999 -999  43.9 -99.9 1005.1 -9.9 -9.999 -99.9 -99.99 -9.99
2019/12/15 01:54 EST    0.07   1.37 -999 -999 -999  43.9 -99.9 1005.3 -9.9 -9.999 -99.9 -99.99 -9.99
2019/12/15 02:00 EST    0.08   1.37 -999 -999 -999  44.0 -99.9 1005.4 -9.9 -9.999 -99.9 -99.99 -9.99
2019/12/15 02:06 EST    0.09   1.37 -999 -999 -999  44.0 -99.9 1005.4 -9.9 -9.999 -99.9 -99.99 -9.99
2019/12/15 02:12 EST    0.09   1.37 -999 -999 -999  44.3 -99.9 1005.5 -9.9 -9.999 -99.9 -99.99 -9.99
2019/12/15 02:18 EST    0.10   1.35 -999 -999 -999  44.4 -99.9 1005.6 -9.9 -9.999 -99.9 -99.99 -9.99
2019/12/15 02:24 EST    0.11   1.36 -999 -999 -999  44.2 -99.9 1005.7 -9.9 -9.999 -99.9 -99.99 -9.99
2019/12/15 02:30 EST    0.12   1.37 -999 -999 -999  44.2 -99.9 1005.8 -9.9 -9.999 -99.9 -99.99 -9.99
2019/12/15 02:36 EST    0.13   1.38 -999 -999 -999  44.0 -99.9 1005.8 -9.9 -9.999 -99.9 -99.99 -9.99
2019/12/15 02:42 EST    0.15   1.39 -999 -999 -999  44.0 -99.9 1005.9 -9.9 -9.999 -99.9 -99.99 -9.99
2019/12/15 02:48 EST    0.16   1.41 -999 -999 -999  44.0 -99.9 1006.1 -9.9 -9.999 -99.9 -99.99 -9.99
2019/12/15 02:54 EST    0.18   1.41 -999 -999 -999  44.0 -99.9 1006.2 -9.9 -9.999 -99.9 -99.99 -9.99
2019/12/15 03:00 EST    0.19   1.41 -999 -999 -999  44.0 -99.9 1006.1 -9.9 -9.999 -99.9 -99.99 -9.99
2019/12/15 03:06 EST    0.21   1.43 -999 -999 -999  43.7 -99.9 1006.3 -9.9 -9.999 -99.9 -99.99 -9.99
2019/12/15 03:12 EST    0.22   1.45 -999 -999 -999  43.6 -99.9 1006.4 -9.9 -9.999 -99.9 -99.99 -9.99
2019/12/15 03:18 EST    0.24   1.45 -999 -999 -999  43.9 -99.9 1006.5 -9.9 -9.999 -99.9 -99.99 -9.99
2019/12/15 03:24 EST    0.26   1.46 -999 -999 -999  43.9 -99.9 1006.6 -9.9 -9.999 -99.9 -99.99 -9.99
2019/12/15 03:30 EST    0.27   1.45 -999 -999 -999  43.9 -99.9 1006.7 -9.9 -9.999 -99.9 -99.99 -9.99
2019/12/15 03:36 EST    0.29   1.45 -999 -999 -999  43.9 -99.9 1006.8 -9.9 -9.999 -99.9 -99.99 -9.99
2019/12/15 03:42 EST    0.31   1.48 -999 -999 -999  43.9 -99.9 1006.9 -9.9 -9.999 -99.9 -99.99 -9.99
2019/12/15 03:48 EST    0.32   1.48 -999 -999 -999  43.8 -99.9 1007.0 -9.9 -9.999 -99.9 -99.99 -9.99
2019/12/15 03:54 EST    0.34   1.50 -999 -999 -999  43.8 -99.9 1007.1 -9.9 -9.999 -99.9 -99.99 -9.99
2019/12/15 04:00 EST    0.36   1.52 -999 -999 -999  44.0 -99.9 1007.1 -9.9 -9.999 -99.9 -99.99 -9.99
2019/12/15 04:06 EST    0.37   1.51 -999 -999 -999  44.0 -99.9 1007.3 -9.9 -9.999 -99.9 -99.99 -9.99
2019/12/15 04:12 EST    0.39   1.53 -999 -999 -999  44.1 -99.9 1007.4 -9.9 -9.999 -99.9 -99.99 -9.99
2019/12/15 04:18 EST    0.41   1.52 -999 -999 -999  44.0 -99.9 1007.4 -9.9 -9.999 -99.9 -99.99 -9.99
2019/12/15 04:24 EST    0.42   1.52 -999 -999 -999  44.0 -99.9 1007.4 -9.9 -9.999 -99.9 -99.99 -9.99
2019/12/15 04:30 EST    0.44   1.54 -999 -999 -999  44.0 -99.9 1007.5 -9.9 -9.999 -99.9 -99.99 -9.99
2019/12/15 04:36 EST    0.45   1.55 -999 -999 -999  44.0 -99.9 1007.5 -9.9 -9.999 -99.9 -99.99 -9.99
2019/12/15 04:42 EST    0.47   1.55 -999 -999 -999  44.0 -99.9 1007.6 -9.9 -9.999 -99.9 -99.99 -9.99
2019/12/15 04:48 EST    0.48   1.56 -999 -999 -999  44.0 -99.9 1007.6 -9.9 -9.999 -99.9 -99.99 -9.99
2019/12/15 04:54 EST    0.50   1.54 -999 -999 -999  44.0 -99.9 1007.7 -9.9 -9.999 -99.9 -99.99 -9.99
2019/12/15 05:00 EST    0.51   1.55 -999 -999 -999  44.1 -99.9 1007.7 -9.9 -9.999 -99.9 -99.99 -9.99
2019/12/15 05:06 EST    0.52   1.56 -999 -999 -999  43.9 -99.9 1007.7 -9.9 -9.999 -99.9 -99.99 -9.99
2019/12/15 05:12 EST    0.53   1.55 -999 -999 -999  43.9 -99.9 1007.7 -9.9 -9.999 -99.9 -99.99 -9.99
2019/12/15 05:18 EST    0.54   1.56 -999 -999 -999  43.9 -99.9 1007.8 -9.9 -9.999 -99.9 -99.99 -9.99
2019/12/15 05:24 EST    0.55   1.58 -999 -999 -999  43.8 -99.9 1007.9 -9.9 -9.999 -99.9 -99.99 -9.99
2019/12/15 05:30 EST    0.56   1.57 -999 -999 -999  43.8 -99.9 1008.0 -9.9 -9.999 -99.9 -99.99 -9.99
2019/12/15 05:36 EST    0.57   1.57 -999 -999 -999  43.7 -99.9 1008.1 -9.9 -9.999 -99.9 -99.99 -9.99
2019/12/15 05:42 EST    0.58   1.56 -999 -999 -999  43.7 -99.9 1008.1 -9.9 -9.999 -99.9 -99.99 -9.99
2019/12/15 05:48 EST    0.59   1.56 -999 -999 -999  43.7 -99.9 1008.2 -9.9 -9.999 -99.9 -99.99 -9.99
2019/12/15 05:54 EST    0.60   1.56 -999 -999 -999  43.7 -99.9 1008.4 -9.9 -9.999 -99.9 -99.99 -9.99
2019/12/15 06:00 EST    0.61   1.55 -999 -999 -999  43.8 -99.9 1008.5 -9.9 -9.999 -99.9 -99.99 -9.99
2019/12/15 06:06 EST    0.61   1.55 -999 -999 -999  43.9 -99.9 1008.6 -9.9 -9.999 -99.9 -99.99 -9.99
2019/12/15 06:12 EST    0.62   1.54 -999 -999 -999  43.9 -99.9 1008.7 -9.9 -9.999 -99.9 -99.99 -9.99
2019/12/15 06:18 EST    0.62   1.53 -999 -999 -999  43.9 -99.9 1008.8 -9.9 -9.999 -99.9 -99.99 -9.99
2019/12/15 06:24 EST    0.62   1.54 -999 -999 -999  43.9 -99.9 1009.0 -9.9 -9.999 -99.9 -99.99 -9.99
2019/12/15 06:30 EST    0.63   1.54 -999 -999 -999  43.9 -99.9 1009.0 -9.9 -9.999 -99.9 -99.99 -9.99
2019/12/15 06:36 EST    0.63   1.52 -999 -999 -999  43.7 -99.9 1009.0 -9.9 -9.999 -99.9 -99.99 -9.99
2019/12/15 06:42 EST    0.63   1.53 -999 -999 -999  43.8 -99.9 1009.1 -9.9 -9.999 -99.9 -99.99 -9.99
2019/12/15 06:48 EST    0.63   1.53 -999 -999 -999  43.7 -99.9 1009.1 -9.9 -9.999 -99.9 -99.99 -9.99
2019/12/15 06:54 EST    0.63   1.52 -999 -999 -999  43.5 -99.9 1009.2 -9.9 -9.999 -99.9 -99.99 -9.99
2019/12/15 07:00 EST    0.62   1.51 -999 -999 -999  43.3 -99.9 1009.2 -9.9 -9.999 -99.9 -99.99 -9.99
2019/12/15 07:06 EST    0.62   1.49 -999 -999 -999  43.2 -99.9 1009.4 -9.9 -9.999 -99.9 -99.99 -9.99
2019/12/15 07:12 EST    0.61   1.48 -999 -999 -999  43.4 -99.9 1009.6 -9.9 -9.999 -99.9 -99.99 -9.99
2019/12/15 07:18 EST    0.61   1.46 -999 -999 -999  43.4 -99.9 1009.6 -9.9 -9.999 -99.9 -99.99 -9.99
2019/12/15 07:24 EST    0.60   1.46 -999 -999 -999  43.3 -99.9 1009.7 -9.9 -9.999 -99.9 -99.99 -9.99
2019/12/15 07:30 EST    0.59   1.44 -999 -999 -999  43.3 -99.9 1009.7 -9.9 -9.999 -99.9 -99.99 -9.99
2019/12/15 07:36 EST    0.58   1.43 -999 -999 -999  43.8 -99.9 1009.9 -9.9 -9.999 -99.9 -99.99 -9.99
2019/12/15 07:42 EST    0.57   1.42 -999 -999 -999  43.8 -99.9 1010.0 -9.9 -9.999 -99.9 -99.99 -9.99
2019/12/15 07:48 EST    0.56   1.39 -999 -999 -999  44.0 -99.9 1010.2 -9.9 -9.999 -99.9 -99.99 -9.99
2019/12/15 07:54 EST    0.55   1.36 -999 -999 -999  43.9 -99.9 1010.4 -9.9 -9.999 -99.9 -99.99 -9.99
2019/12/15 08:00 EST    0.53   1.34 -999 -999 -999  43.7 -99.9 1010.4 -9.9 -9.999 -99.9 -99.99 -9.99
2019/12/15 08:06 EST    0.52   1.30 -999 -999 -999  43.6 -99.9 1010.7 -9.9 -9.999 -99.9 -99.99 -9.99
2019/12/15 08:12 EST    0.50   1.29 -999 -999 -999  43.5 -99.9 1010.8 -9.9 -9.999 -99.9 -99.99 -9.99
2019/12/15 08:18 EST    0.49   1.27 -999 -999 -999  43.4 -99.9 1010.9 -9.9 -9.999 -99.9 -99.99 -9.99
2019/12/15 08:24 EST    0.47   1.24 -999 -999 -999  43.5 -99.9 1011.0 -9.9 -9.999 -99.9 -99.99 -9.99
2019/12/15 08:30 EST    0.45   1.23 -999 -999 -999  43.7 -99.9 1011.1 -9.9 -9.999 -99.9 -99.99 -9.99
2019/12/15 08:36 EST    0.43   1.21 -999 -999 -999  43.9 -99.9 1011.3 -9.9 -9.999 -99.9 -99.99 -9.99
2019/12/15 08:42 EST    0.41   1.18 -999 -999 -999  44.1 -99.9 1011.4 -9.9 -9.999 -99.9 -99.99 -9.99
2019/12/15 08:48 EST    0.39   1.17 -999 -999 -999  44.2 -99.9 1011.5 -9.9 -9.999 -99.9 -99.99 -9.99
2019/12/15 08:54 EST    0.37   1.13 -999 -999 -999  44.6 -99.9 1011.6 -9.9 -9.999 -99.9 -99.99 -9.99
2019/12/15 09:00 EST    0.35   1.12 -999 -999 -999  45.0 -99.9 1011.8 -9.9 -9.999 -99.9 -99.99 -9.99
2019/12/15 09:06 EST    0.32   1.09 -999 -999 -999  45.5 -99.9 1011.9 -9.9 -9.999 -99.9 -99.99 -9.99
2019/12/15 09:12 EST    0.30   1.05 -999 -999 -999  46.0 -99.9 1011.9 -9.9 -9.999 -99.9 -99.99 -9.99
2019/12/15 09:18 EST    0.28   1.02 -999 -999 -999  46.1 -99.9 1011.9 -9.9 -9.999 -99.9 -99.99 -9.99
2019/12/15 09:24 EST    0.26   0.99 -999 -999 -999  46.4 -99.9 1011.9 -9.9 -9.999 -99.9 -99.99 -9.99
2019/12/15 09:30 EST    0.23   0.97 -999 -999 -999  46.8 -99.9 1012.1 -9.9 -9.999 -99.9 -99.99 -9.99
2019/12/15 09:36 EST    0.21   0.96 -999 -999 -999  47.0 -99.9 1012.2 -9.9 -9.999 -99.9 -99.99 -9.99
2019/12/15 09:42 EST    0.19   0.93 -999 -999 -999  47.2 -99.9 1012.4 -9.9 -9.999 -99.9 -99.99 -9.99
2019/12/15 09:48 EST    0.16   0.91 -999 -999 -999  47.4 -99.9 1012.5 -9.9 -9.999 -99.9 -99.99 -9.99
2019/12/15 09:54 EST    0.14   0.90 -999 -999 -999  47.5 -99.9 1012.5 -9.9 -9.999 -99.9 -99.99 -9.99
2019/12/15 10:00 EST    0.12   0.87 -999 -999 -999  47.6 -99.9 1012.5 -9.9 -9.999 -99.9 -99.99 -9.99
2019/12/15 10:06 EST    0.10   0.85 -999 -999 -999  47.9 -99.9 1012.6 -9.9 -9.999 -99.9 -99.99 -9.99
2019/12/15 10:12 EST    0.07   0.82 -999 -999 -999  48.0 -99.9 1012.7 -9.9 -9.999 -99.9 -99.99 -9.99
2019/12/15 10:18 EST    0.05   0.79 -999 -999 -999  48.4 -99.9 1012.8 -9.9 -9.999 -99.9 -99.99 -9.99
2019/12/15 10:24 EST    0.03   0.76 -999 -999 -999  48.5 -99.9 1012.9 -9.9 -9.999 -99.9 -99.99 -9.99
2019/12/15 10:30 EST    0.01   0.75 -999 -999 -999  48.8 -99.9 1013.0 -9.9 -9.999 -99.9 -99.99 -9.99
2019/12/15 10:36 EST   -0.01   0.71 -999 -999 -999  49.1 -99.9 1013.2 -9.9 -9.999 -99.9 -99.99 -9.99
2019/12/15 10:42 EST   -0.03   0.69 -999 -999 -999  49.4 -99.9 1013.3 -9.9 -9.999 -99.9 -99.99 -9.99
2019/12/15 10:48 EST   -0.05   0.67 -999 -999 -999  49.8 -99.9 1013.2 -9.9 -9.999 -99.9 -99.99 -9.99
2019/12/15 10:54 EST   -0.07   0.65 -999 -999 -999  50.1 -99.9 1013.3 -9.9 -9.999 -99.9 -99.99 -9.99
2019/12/15 11:00 EST   -0.09   0.64 -999 -999 -999  50.2 -99.9 1013.3 -9.9 -9.999 -99.9 -99.99 -9.99
2019/12/15 11:06 EST   -0.11   0.62 -999 -999 -999  50.1 -99.9 1013.3 -9.9 -9.999 -99.9 -99.99 -9.99
2019/12/15 11:12 EST   -0.12   0.61 -999 -999 -999  50.6 -99.9 1013.3 -9.9 -9.999 -99.9 -99.99 -9.99
2019/12/15 11:18 EST   -0.14   0.58 -999 -999 -999  50.9 -99.9 1013.3 -9.9 -9.999 -99.9 -99.99 -9.99
2019/12/15 11:24 EST   -0.16   0.56 -999 -999 -999  50.6 -99.9 1013.3 -9.9 -9.999 -99.9 -99.99 -9.99
2019/12/15 11:30 EST   -0.17   0.54 -999 -999 -999  50.7 -99.9 1013.2 -9.9 -9.999 -99.9 -99.99 -9.99
2019/12/15 11:36 EST   -0.19   0.52 -999 -999 -999  51.0 -99.9 1013.2 -9.9 -9.999 -99.9 -99.99 -9.99
2019/12/15 11:42 EST   -0.20   0.52 -999 -999 -999  51.6 -99.9 1013.2 -9.9 -9.999 -99.9 -99.99 -9.99
2019/12/15 11:48 EST   -0.22   0.50 -999 -999 -999  52.1 -99.9 1013.1 -9.9 -9.999 -99.9 -99.99 -9.99
2019/12/15 11:54 EST   -0.23   0.49 -999 -999 -999  52.1 -99.9 1013.2 -9.9 -9.999 -99.9 -99.99 -9.99
2019/12/15 12:00 EST   -0.24   0.47 -999 -999 -999  52.2 -99.9 1013.0 -9.9 -9.999 -99.9 -99.99 -9.99
2019/12/15 12:06 EST   -0.25   0.43 -999 -999 -999  51.8 -99.9 1013.0 -9.9 -9.999 -99.9 -99.99 -9.99
2019/12/15 12:12 EST   -0.26   0.41 -999 -999 -999  52.1 -99.9 1013.0 -9.9 -9.999 -99.9 -99.99 -9.99
2019/12/15 12:18 EST   -0.27   0.37 -999 -999 -999  52.4 -99.9 1012.8 -9.9 -9.999 -99.9 -99.99 -9.99
2019/12/15 12:24 EST   -0.28   0.36 -999 -999 -999  52.7 -99.9 1012.8 -9.9 -9.999 -99.9 -99.99 -9.99
2019/12/15 12:30 EST   -0.29   0.33 -999 -999 -999  52.7 -99.9 1012.9 -9.9 -9.999 -99.9 -99.99 -9.99
2019/12/15 12:36 EST   -0.30   0.32 -999 -999 -999  52.6 -99.9 1012.8 -9.9 -9.999 -99.9 -99.99 -9.99
2019/12/15 12:42 EST   -0.30   0.32 -999 -999 -999  52.5 -99.9 1012.9 -9.9 -9.999 -99.9 -99.99 -9.99
2019/12/15 12:48 EST   -0.30   0.34 -999 -999 -999  52.6 -99.9 1013.1 -9.9 -9.999 -99.9 -99.99 -9.99
2019/12/15 12:54 EST   -0.31   0.33 -999 -999 -999  52.8 -99.9 1013.1 -9.9 -9.999 -99.9 -99.99 -9.99
2019/12/15 13:00 EST   -0.31   0.33 -999 -999 -999  52.8 -99.9 1013.1 -9.9 -9.999 -99.9 -99.99 -9.99
2019/12/15 13:06 EST   -0.31   0.33 -999 -999 -999  52.9 -99.9 1013.1 -9.9 -9.999 -99.9 -99.99 -9.99
2019/12/15 13:12 EST   -0.31   0.34 -999 -999 -999  52.8 -99.9 1013.1 -9.9 -9.999 -99.9 -99.99 -9.99
2019/12/15 13:18 EST   -0.30   0.35 -999 -999 -999  52.6 -99.9 1013.7 -9.9 -9.999 -99.9 -99.99 -9.99
2019/12/15 13:24 EST   -0.30   0.33 -999 -999 -999  52.7 -99.9 1013.4 -9.9 -9.999 -99.9 -99.99 -9.99
2019/12/15 13:30 EST   -0.29   0.32 -999 -999 -999  52.7 -99.9 1013.4 -9.9 -9.999 -99.9 -99.99 -9.99
2019/12/15 13:36 EST   -0.28   0.31 -999 -999 -999  52.8 -99.9 1013.5 -9.9 -9.999 -99.9 -99.99 -9.99
2019/12/15 13:42 EST   -0.27   0.31 -999 -999 -999  52.7 -99.9 1013.4 -9.9 -9.999 -99.9 -99.99 -9.99
2019/12/15 13:48 EST   -0.26   0.32 -999 -999 -999  52.7 -99.9 1013.6 -9.9 -9.999 -99.9 -99.99 -9.99
2019/12/15 13:54 EST   -0.25   0.34 -999 -999 -999  52.6 -99.9 1013.6 -9.9 -9.999 -99.9 -99.99 -9.99
2019/12/15 14:00 EST   -0.23   0.35 -999 -999 -999  52.5 -99.9 1013.5 -9.9 -9.999 -99.9 -99.99 -9.99
2019/12/15 14:06 EST   -0.21   0.38 -999 -999 -999  52.3 -99.9 1013.4 -9.9 -9.999 -99.9 -99.99 -9.99
2019/12/15 14:12 EST   -0.19   0.39 -999 -999 -999  52.3 -99.9 1013.6 -9.9 -9.999 -99.9 -99.99 -9.99
2019/12/15 14:18 EST   -0.17   0.39 -999 -999 -999  52.5 -99.9 1013.8 -9.9 -9.999 -99.9 -99.99 -9.99
2019/12/15 14:24 EST   -0.15   0.41 -999 -999 -999  52.4 -99.9 1013.9 -9.9 -9.999 -99.9 -99.99 -9.99
2019/12/15 14:30 EST   -0.13   0.44 -999 -999 -999  52.5 -99.9 1014.1 -9.9 -9.999 -99.9 -99.99 -9.99
2019/12/15 14:36 EST   -0.10   0.48 -999 -999 -999  51.7 -99.9 1014.1 -9.9 -9.999 -99.9 -99.99 -9.99
2019/12/15 14:42 EST   -0.08   0.51 -999 -999 -999  50.5 -99.9 1014.3 -9.9 -9.999 -99.9 -99.99 -9.99
2019/12/15 14:48 EST   -0.05   0.53 -999 -999 -999  51.2 -99.9 1014.4 -9.9 -9.999 -99.9 -99.99 -9.99
2019/12/15 14:54 EST   -0.02   0.55 -999 -999 -999  51.5 -99.9 1014.5 -9.9 -9.999 -99.9 -99.99 -9.99
2019/12/15 15:00 EST    0.01   0.58 -999 -999 -999  51.5 -99.9 1014.6 -9.9 -9.999 -99.9 -99.99 -9.99
2019/12/15 15:06 EST    0.04   0.61 -999 -999 -999  51.5 -99.9 1014.8 -9.9 -9.999 -99.9 -99.99 -9.99
2019/12/15 15:12 EST    0.07   0.63 -999 -999 -999  51.5 -99.9 1014.9 -9.9 -9.999 -99.9 -99.99 -9.99
2019/12/15 15:18 EST    0.10   0.64 -999 -999 -999  51.5 -99.9 1015.1 -9.9 -9.999 -99.9 -99.99 -9.99
2019/12/15 15:24 EST    0.14   0.65 -999 -999 -999  51.3 -99.9 1015.2 -9.9 -9.999 -99.9 -99.99 -9.99
2019/12/15 15:30 EST    0.17   0.68 -999 -999 -999  51.4 -99.9 1015.4 -9.9 -9.999 -99.9 -99.99 -9.99
2019/12/15 15:36 EST    0.20   0.71 -999 -999 -999  51.2 -99.9 1015.6 -9.9 -9.999 -99.9 -99.99 -9.99
2019/12/15 15:42 EST    0.24   0.75 -999 -999 -999  51.0 -99.9 1015.8 -9.9 -9.999 -99.9 -99.99 -9.99
2019/12/15 15:48 EST    0.27   0.76 -999 -999 -999  51.0 -99.9 1016.1 -9.9 -9.999 -99.9 -99.99 -9.99
2019/12/15 15:54 EST    0.31   0.79 -999 -999 -999  51.0 -99.9 1016.2 -9.9 -9.999 -99.9 -99.99 -9.99
2019/12/15 16:00 EST    0.34   0.79 -999 -999 -999  50.6 -99.9 1016.4 -9.9 -9.999 -99.9 -99.99 -9.99
2019/12/15 16:06 EST    0.38   0.81 -999 -999 -999  50.0 -99.9 1016.5 -9.9 -9.999 -99.9 -99.99 -9.99
2019/12/15 16:12 EST    0.41   0.84 -999 -999 -999  49.6 -99.9 1016.6 -9.9 -9.999 -99.9 -99.99 -9.99
2019/12/15 16:18 EST    0.45   0.86 -999 -999 -999  49.4 -99.9 1016.8 -9.9 -9.999 -99.9 -99.99 -9.99
2019/12/15 16:24 EST    0.48   0.88 -999 -999 -999  49.2 -99.9 1016.9 -9.9 -9.999 -99.9 -99.99 -9.99
2019/12/15 16:30 EST    0.52   0.90 -999 -999 -999  48.7 -99.9 1017.0 -9.9 -9.999 -99.9 -99.99 -9.99
2019/12/15 16:36 EST    0.55   0.92 -999 -999 -999  48.3 -99.9 1017.2 -9.9 -9.999 -99.9 -99.99 -9.99
2019/12/15 16:42 EST    0.58   0.94 -999 -999 -999  48.2 -99.9 1017.3 -9.9 -9.999 -99.9 -99.99 -9.99
2019/12/15 16:48 EST    0.62   0.97 -999 -999 -999  47.9 -99.9 1017.4 -9.9 -9.999 -99.9 -99.99 -9.99
2019/12/15 16:54 EST    0.65   0.99 -999 -999 -999  47.7 -99.9 1017.4 -9.9 -9.999 -99.9 -99.99 -9.99
2019/12/15 17:00 EST    0.68   1.01 -999 -999 -999  47.5 -99.9 1017.4 -9.9 -9.999 -99.9 -99.99 -9.99
2019/12/15 17:06 EST    0.71   1.04 -999 -999 -999  47.2 -99.9 1017.5 -9.9 -9.999 -99.9 -99.99 -9.99
2019/12/15 17:12 EST    0.74   1.06 -999 -999 -999  47.0 -99.9 1017.8 -9.9 -9.999 -99.9 -99.99 -9.99
2019/12/15 17:18 EST    0.77   1.06 -999 -999 -999  46.7 -99.9 1017.9 -9.9 -9.999 -99.9 -99.99 -9.99
2019/12/15 17:24 EST    0.80   1.08 -999 -999 -999  46.3 -99.9 1018.1 -9.9 -9.999 -99.9 -99.99 -9.99
2019/12/15 17:30 EST    0.83   1.11 -999 -999 -999  46.0 -99.9 1018.4 -9.9 -9.999 -99.9 -99.99 -9.99
2019/12/15 17:36 EST    0.86   1.13 -999 -999 -999  45.7 -99.9 1018.5 -9.9 -9.999 -99.9 -99.99 -9.99
2019/12/15 17:42 EST    0.89   1.15 -999 -999 -999  45.3 -99.9 1018.6 -9.9 -9.999 -99.9 -99.99 -9.99
2019/12/15 17:48 EST    0.91   1.16 -999 -999 -999  44.9 -99.9 1018.7 -9.9 -9.999 -99.9 -99.99 -9.99
2019/12/15 17:54 EST    0.94   1.15 -999 -999 -999  45.0 -99.9 1018.9 -9.9 -9.999 -99.9 -99.99 -9.99
2019/12/15 18:00 EST    0.96   1.15 -999 -999 -999  44.8 -99.9 1019.0 -9.9 -9.999 -99.9 -99.99 -9.99
2019/12/15 18:06 EST    0.98   1.16 -999 -999 -999  44.5 -99.9 1019.2 -9.9 -9.999 -99.9 -99.99 -9.99
2019/12/15 18:12 EST    1.01   1.18 -999 -999 -999  44.4 -99.9 1019.4 -9.9 -9.999 -99.9 -99.99 -9.99
2019/12/15 18:18 EST    1.03   1.21 -999 -999 -999  44.0 -99.9 1019.5 -9.9 -9.999 -99.9 -99.99 -9.99
2019/12/15 18:24 EST    1.05   1.22 -999 -999 -999  43.4 -99.9 1019.7 -9.9 -9.999 -99.9 -99.99 -9.99
2019/12/15 18:30 EST    1.07   1.23 -999 -999 -999  43.1 -99.9 1019.8 -9.9 -9.999 -99.9 -99.99 -9.99
2019/12/15 18:36 EST    1.09   1.25 -999 -999 -999  43.2 -99.9 1019.7 -9.9 -9.999 -99.9 -99.99 -9.99
2019/12/15 18:42 EST    1.10   1.27 -999 -999 -999  43.4 -99.9 1019.9 -9.9 -9.999 -99.9 -99.99 -9.99
2019/12/15 18:48 EST    1.12   1.29 -999 -999 -999  42.9 -99.9 1020.1 -9.9 -9.999 -99.9 -99.99 -9.99
2019/12/15 18:54 EST    1.14   1.28 -999 -999 -999  42.4 -99.9 1020.3 -9.9 -9.999 -99.9 -99.99 -9.99
2019/12/15 19:00 EST    1.15   1.27 -999 -999 -999  42.5 -99.9 1020.4 -9.9 -9.999 -99.9 -99.99 -9.99
2019/12/15 19:06 EST    1.16   1.26 -999 -999 -999  42.0 -99.9 1020.5 -9.9 -9.999 -99.9 -99.99 -9.99
2019/12/15 19:12 EST    1.17   1.24 -999 -999 -999  42.0 -99.9 1020.3 -9.9 -9.999 -99.9 -99.99 -9.99
2019/12/15 19:18 EST    1.18   1.23 -999 -999 -999  41.8 -99.9 1020.5 -9.9 -9.999 -99.9 -99.99 -9.99
2019/12/15 19:24 EST    1.19   1.24 -999 -999 -999  41.6 -99.9 1020.5 -9.9 -9.999 -99.9 -99.99 -9.99
2019/12/15 19:30 EST    1.20   1.24 -999 -999 -999  42.1 -99.9 1020.6 -9.9 -9.999 -99.9 -99.99 -9.99
2019/12/15 19:36 EST    1.20   1.24 -999 -999 -999  42.2 -99.9 1020.5 -9.9 -9.999 -99.9 -99.99 -9.99
2019/12/15 19:42 EST    1.20   1.26 -999 -999 -999  42.1 -99.9 1020.5 -9.9 -9.999 -99.9 -99.99 -9.99
2019/12/15 19:48 EST    1.21   1.29 -999 -999 -999  42.0 -99.9 1020.4 -9.9 -9.999 -99.9 -99.99 -9.99
2019/12/15 19:54 EST    1.21   1.27 -999 -999 -999  41.6 -99.9 1020.7 -9.9 -9.999 -99.9 -99.99 -9.99
2019/12/15 20:00 EST    1.21   1.23 -999 -999 -999  41.5 -99.9 1020.9 -9.9 -9.999 -99.9 -99.99 -9.99
2019/12/15 20:06 EST    1.20   1.22 -999 -999 -999  41.4 -99.9 1020.9 -9.9 -9.999 -99.9 -99.99 -9.99
2019/12/15 20:12 EST    1.20   1.19 -999 -999 -999  41.4 -99.9 1021.0 -9.9 -9.999 -99.9 -99.99 -9.99
2019/12/15 20:18 EST    1.19   1.19 -999 -999 -999  41.2 -99.9 1021.1 -9.9 -9.999 -99.9 -99.99 -9.99
2019/12/15 20:24 EST    1.19   1.15 -999 -999 -999  40.9 -99.9 1021.3 -9.9 -9.999 -99.9 -99.99 -9.99
2019/12/15 20:30 EST    1.18   1.09 -999 -999 -999  40.9 -99.9 1021.2 -9.9 -9.999 -99.9 -99.99 -9.99
2019/12/15 20:36 EST    1.17   1.11 -999 -999 -999  40.9 -99.9 1020.9 -9.9 -9.999 -99.9 -99.99 -9.99
2019/12/15 20:42 EST    1.15   1.12 -999 -999 -999  40.7 -99.9 1021.0 -9.9 -9.999 -99.9 -99.99 -9.99
2019/12/15 20:48 EST    1.14   1.11 -999 -999 -999  40.3 -99.9 1021.4 -9.9 -9.999 -99.9 -99.99 -9.99
2019/12/15 20:54 EST    1.13   1.08 -999 -999 -999  40.2 -99.9 1021.4 -9.9 -9.999 -99.9 -99.99 -9.99
2019/12/15 21:00 EST    1.11   1.06 -999 -999 -999  40.2 -99.9 1021.4 -9.9 -9.999 -99.9 -99.99 -9.99
2019/12/15 21:06 EST    1.10   1.06 -999 -999 -999  40.0 -99.9 1021.5 -9.9 -9.999 -99.9 -99.99 -9.99
2019/12/15 21:12 EST    1.08   1.02 -999 -999 -999  40.0 -99.9 1021.6 -9.9 -9.999 -99.9 -99.99 -9.99
2019/12/15 21:18 EST    1.06   0.99 -999 -999 -999  40.1 -99.9 1022.0 -9.9 -9.999 -99.9 -99.99 -9.99
2019/12/15 21:24 EST    1.04   0.97 -999 -999 -999  40.0 -99.9 1022.3 -9.9 -9.999 -99.9 -99.99 -9.99
2019/12/15 21:30 EST    1.02   0.92 -999 -999 -999  40.0 -99.9 1022.6 -9.9 -9.999 -99.9 -99.99 -9.99
2019/12/15 21:36 EST    1.00   0.91 -999 -999 -999  39.9 -99.9 1022.8 -9.9 -9.999 -99.9 -99.99 -9.99
2019/12/15 21:42 EST    0.98   0.91 -999 -999 -999  39.9 -99.9 1022.9 -9.9 -9.999 -99.9 -99.99 -9.99
2019/12/15 21:48 EST    0.95   0.87 -999 -999 -999  39.9 -99.9 1023.0 -9.9 -9.999 -99.9 -99.99 -9.99
2019/12/15 21:54 EST    0.93   0.82 -999 -999 -999  39.8 -99.9 1023.0 -9.9 -9.999 -99.9 -99.99 -9.99
2019/12/15 22:00 EST    0.91   0.82 -999 -999 -999  39.8 -99.9 1022.8 -9.9 -9.999 -99.9 -99.99 -9.99
2019/12/15 22:06 EST    0.88   0.81 -999 -999 -999  39.8 -99.9 1022.8 -9.9 -9.999 -99.9 -99.99 -9.99
2019/12/15 22:12 EST    0.86   0.76 -999 -999 -999  39.6 -99.9 1022.9 -9.9 -9.999 -99.9 -99.99 -9.99
2019/12/15 22:18 EST    0.83   0.74 -999 -999 -999  39.5 -99.9 1022.8 -9.9 -9.999 -99.9 -99.99 -9.99
2019/12/15 22:24 EST    0.81   0.71 -999 -999 -999  39.4 -99.9 1022.8 -9.9 -9.999 -99.9 -99.99 -9.99
2019/12/15 22:30 EST    0.78   0.68 -999 -999 -999  39.4 -99.9 1022.7 -9.9 -9.999 -99.9 -99.99 -9.99
2019/12/15 22:36 EST    0.76   0.65 -999 -999 -999  39.5 -99.9 1022.8 -9.9 -9.999 -99.9 -99.99 -9.99
2019/12/15 22:42 EST    0.73   0.63 -999 -999 -999  39.6 -99.9 1022.7 -9.9 -9.999 -99.9 -99.99 -9.99
2019/12/15 22:48 EST    0.71   0.59 -999 -999 -999  39.4 -99.9 1022.7 -9.9 -9.999 -99.9 -99.99 -9.99
2019/12/15 22:54 EST    0.68   0.56 -999 -999 -999  39.3 -99.9 1022.5 -9.9 -9.999 -99.9 -99.99 -9.99
2019/12/15 23:00 EST    0.66   0.54 -999 -999 -999  39.2 -99.9 1022.2 -9.9 -9.999 -99.9 -99.99 -9.99
2019/12/15 23:06 EST    0.63   0.52 -999 -999 -999  39.3 -99.9 1022.3 -9.9 -9.999 -99.9 -99.99 -9.99
2019/12/15 23:12 EST    0.60   0.49 -999 -999 -999  39.3 -99.9 1022.4 -9.9 -9.999 -99.9 -99.99 -9.99
2019/12/15 23:18 EST    0.58   0.44 -999 -999 -999  39.5 -99.9 1022.6 -9.9 -9.999 -99.9 -99.99 -9.99
2019/12/15 23:24 EST    0.55   0.41 -999 -999 -999  39.4 -99.9 1022.4 -9.9 -9.999 -99.9 -99.99 -9.99
2019/12/15 23:30 EST    0.53   0.41 -999 -999 -999  39.3 -99.9 1022.8 -9.9 -9.999 -99.9 -99.99 -9.99
2019/12/15 23:36 EST    0.50   0.38 -999 -999 -999  39.3 -99.9 1022.8 -9.9 -9.999 -99.9 -99.99 -9.99
2019/12/15 23:42 EST    0.48   0.34 -999 -999 -999  39.2 -99.9 1022.9 -9.9 -9.999 -99.9 -99.99 -9.99
2019/12/15 23:48 EST    0.45   0.30 -999 -999 -999  39.1 -99.9 1023.3 -9.9 -9.999 -99.9 -99.99 -9.99
2019/12/15 23:54 EST    0.43   0.27 -999 -999 -999  39.3 -99.9 1023.1 -9.9 -9.999 -99.9 -99.99 -9.99
2019/12/16 00:00 EST    0.40   0.26 -999 -999 -999  39.2 -99.9 1022.7 -9.9 -9.999 -99.9 -99.99 -9.99
2019/12/16 00:06 EST    0.38   0.23 -999 -999 -999  39.3 -99.9 1022.5 -9.9 -9.999 -99.9 -99.99 -9.99
2019/12/16 00:12 EST    0.35   0.18 -999 -999 -999  39.4 -99.9 1022.6 -9.9 -9.999 -99.9 -99.99 -9.99
2019/12/16 00:18 EST    0.33   0.14 -999 -999 -999  39.3 -99.9 1022.4 -9.9 -9.999 -99.9 -99.99 -9.99
2019/12/16 00:24 EST    0.31   0.10 -999 -999 -999  39.3 -99.9 1022.3 -9.9 -9.999 -99.9 -99.99 -9.99
2019/12/16 00:30 EST    0.29   0.07 -999 -999 -999  39.4 -99.9 1022.7 -9.9 -9.999 -99.9 -99.99 -9.99
2019/12/16 00:36 EST    0.26   0.02 -999 -999 -999  39.4 -99.9 1022.9 -9.9 -9.999 -99.9 -99.99 -9.99
2019/12/16 00:42 EST    0.24  -0.02 -999 -999 -999  39.6 -99.9 1022.8 -9.9 -9.999 -99.9 -99.99 -9.99
2019/12/16 00:48 EST    0.22  -0.03 -999 -999 -999  39.5 -99.9 1023.1 -9.9 -9.999 -99.9 -99.99 -9.99
2019/12/16 00:54 EST    0.20  -0.06 -999 -999 -999  39.6 -99.9 1023.3 -9.9 -9.999 -99.9 -99.99 -9.99
2019/12/16 01:00 EST    0.18  -0.08 -999 -999 -999  39.6 -99.9 1023.3 -9.9 -9.999 -99.9 -99.99 -9.99
2019/12/16 01:06 EST    0.16 -99.99 -999 -999 -999 -99.9 -99.9 -999.9 -9.9 -9.999 -99.9 -99.99 -9.99
2019/12/16 01:12 EST    0.15 -99.99 -999 -999 -999 -99.9 -99.9 -999.9 -9.9 -9.999 -99.9 -99.99 -9.99